GW6089 Weather Reports


Display with metric or nautical units.
time (UTC)temp
F
wind
direction
speed
MPH
gust
MPH
rain 1hr
in
rain 24hr
in
rain mn
in
humidity
%
barometer
mb
20260509200205 56 214 0.0 1.0 0.00 0.00 0.00 82 1022.4
20260509200106 56 214 0.0 1.0 0.00 0.00 0.00 82 1022.1
20260509200005 56 214 0.0 1.0 0.00 0.00 0.00 82 1022.0
20260509195905 56 214 0.0 1.0 0.00 0.00 0.00 82 1022.1
20260509195806 56 214 0.0 1.0 0.00 0.00 0.00 82 1022.2
20260509195705 56 214 0.0 1.0 0.00 0.00 0.00 82 1022.1
20260509195606 56 214 0.0 1.0 0.00 0.00 0.00 82 1022.1
20260509195504 56 214 0.0 1.0 0.00 0.00 0.00 82 1022.0
20260509195405 56 214 0.0 1.0 0.00 0.00 0.00 82 1022.1
20260509195307 56 214 0.0 1.0 0.00 0.00 0.00 82 1022.3
20260509195205 56 214 0.0 1.0 0.00 0.00 0.00 82 1022.3
20260509195106 56 214 0.0 1.0 0.00 0.00 0.00 82 1022.4
20260509195005 56 214 0.0 1.0 0.00 0.00 0.00 82 1022.3
20260509194906 56 214 0.0 2.0 0.00 0.00 0.00 82 1022.3
20260509194806 56 214 0.0 2.0 0.00 0.00 0.00 82 1022.2
20260509194705 57 214 0.0 2.0 0.00 0.00 0.00 82 1022.2
20260509194605 56 214 0.0 2.0 0.00 0.00 0.00 82 1022.0
20260509194506 56 214 0.0 2.0 0.00 0.00 0.00 82 1022.2
20260509194420 57 214 0.0 2.0 0.00 0.00 0.00 82 1022.2
20260509194405 57 214 0.0 2.0 0.00 0.00 0.00 82 1022.0
20260509194306 57 214 0.0 2.0 0.00 0.00 0.00 82 1022.2
20260509194005 57 214 0.0 2.0 0.00 0.00 0.00 82 1022.3
20260509193905 57 214 0.0 1.0 0.00 0.00 0.00 82 1022.3
20260509193805 57 214 0.0 1.0 0.00 0.00 0.00 82 1022.1
20260509193705 57 214 0.0 1.0 0.00 0.00 0.00 82 1022.2
20260509193605 57 214 0.0 1.0 0.00 0.00 0.00 82 1022.0
20260509193520 57 214 0.0 1.0 0.00 0.00 0.00 82 1022.0
20260509193505 57 214 0.0 1.0 0.00 0.00 0.00 81 1022.0
20260509193404 57 214 0.0 1.0 0.00 0.00 0.00 82 1022.0
20260509193205 57 214 0.0 1.0 0.00 0.00 0.00 82 1021.8
20260509193106 57 214 0.0 1.0 0.00 0.00 0.00 82 1021.9
20260509193005 57 214 0.0 1.0 0.00 0.00 0.00 82 1022.0
20260509192905 57 214 0.0 1.0 0.00 0.00 0.00 82 1021.8
20260509192805 57 0 0.0 0.0 0.00 0.00 0.00 82 1021.9
20260509192705 57 0 0.0 0.0 0.00 0.00 0.00 82 1021.8
20260509192605 57 0 0.0 0.0 0.00 0.00 0.00 82 1021.8
20260509192506 57 0 0.0 0.0 0.00 0.00 0.00 82 1022.1
20260509192405 57 0 0.0 0.0 0.00 0.00 0.00 82 1021.9
20260509192319 57 0 0.0 0.0 0.00 0.00 0.00 82 1021.9
20260509192306 57 0 0.0 0.0 0.00 0.00 0.00 82 1022.0
20260509192206 57 0 0.0 0.0 0.00 0.00 0.00 82 1021.9
20260509192006 57 0 0.0 0.0 0.00 0.00 0.00 82 1021.8
20260509191921 57 0 0.0 0.0 0.00 0.00 0.00 82 1021.8
20260509191906 58 0 0.0 0.0 0.00 0.00 0.00 82 1021.9
20260509191820 58 0 0.0 0.0 0.00 0.00 0.00 82 1021.9
20260509191805 58 0 0.0 0.0 0.00 0.00 0.00 82 1021.8
20260509191720 58 0 0.0 0.0 0.00 0.00 0.00 82 1021.8
20260509191520 58 214 0.0 1.0 0.00 0.00 0.00 82 1021.9
20260509191406 58 207 0.0 1.0 0.00 0.00 0.00 82 1022.0
20260509191219 58 205 0.0 1.0 0.00 0.00 0.00 82 1022.1
20260509191205 58 205 0.0 1.0 0.00 0.00 0.00 82 1022.0
20260509191105 58 205 0.0 1.0 0.00 0.00 0.00 82 1022.3
20260509191018 58 205 0.0 1.0 0.00 0.00 0.00 82 1022.3
20260509190904 58 205 0.0 1.0 0.00 0.00 0.00 82 1022.0
20260509190706 58 205 0.0 1.0 0.00 0.00 0.00 82 1022.1
20260509190606 58 203 0.0 1.0 0.00 0.00 0.00 82 1021.9
20260509190505 58 195 0.0 1.0 0.00 0.00 0.00 82 1021.7
20260509190405 58 195 0.0 1.0 0.00 0.00 0.00 82 1021.8
20260509190319 58 0 0.0 0.0 0.00 0.00 0.00 82 1021.8
20260509190304 58 0 0.0 0.0 0.00 0.00 0.00 82 1021.9
20260509190219 58 0 0.0 0.0 0.00 0.00 0.00 82 1021.9
20260509190206 58 0 0.0 0.0 0.00 0.00 0.00 82 1022.1
20260509190020 58 0 0.0 0.0 0.00 0.00 0.00 82 1021.8
20260509185906 58 0 0.0 0.0 0.00 0.00 0.00 82 1021.6
20260509185706 58 0 0.0 0.0 0.00 0.00 0.00 82 1021.9
20260509185605 58 0 0.0 0.0 0.00 0.00 0.00 82 1022.0
20260509185506 58 0 0.0 0.0 0.00 0.00 0.00 82 1021.6
20260509185405 58 0 0.0 0.0 0.00 0.00 0.00 82 1022.1
20260509185307 58 0 0.0 0.0 0.00 0.00 0.00 82 1021.8
20260509185205 58 0 0.0 0.0 0.00 0.00 0.00 82 1021.8
20260509185106 58 0 0.0 0.0 0.00 0.00 0.00 82 1021.8
20260509185005 58 0 0.0 0.0 0.00 0.00 0.00 82 1021.8
20260509184905 58 0 0.0 0.0 0.00 0.00 0.00 82 1021.6
20260509184806 58 0 0.0 0.0 0.00 0.00 0.00 82 1021.7
20260509184705 58 0 0.0 0.0 0.00 0.00 0.00 82 1021.5
20260509184619 58 0 0.0 0.0 0.00 0.00 0.00 82 1021.5
20260509184604 58 0 0.0 0.0 0.00 0.00 0.00 82 1021.8
20260509184506 58 0 0.0 0.0 0.00 0.00 0.00 82 1021.6
20260509184306 58 0 0.0 0.0 0.00 0.00 0.00 82 1021.5
20260509184206 58 0 0.0 0.0 0.00 0.00 0.00 82 1021.9
20260509184106 58 0 0.0 0.0 0.00 0.00 0.00 82 1021.7
20260509184005 58 0 0.0 0.0 0.00 0.00 0.00 82 1021.5
20260509183905 58 0 0.0 0.0 0.00 0.00 0.00 81 1021.7
20260509183804 58 0 0.0 0.0 0.00 0.00 0.00 81 1021.7
20260509183705 58 0 0.0 0.0 0.00 0.00 0.00 81 1021.5
20260509183605 58 0 0.0 0.0 0.00 0.00 0.00 81 1021.8
20260509183504 58 0 0.0 0.0 0.00 0.00 0.00 81 1021.6
20260509183406 58 0 0.0 0.0 0.00 0.00 0.00 81 1021.7
20260509183306 58 0 0.0 0.0 0.00 0.00 0.00 81 1021.8
20260509183206 58 0 0.0 0.0 0.00 0.00 0.00 81 1021.6
20260509183106 58 0 0.0 0.0 0.00 0.00 0.00 81 1021.8
20260509183020 58 0 0.0 0.0 0.00 0.00 0.00 81 1021.8
20260509183006 58 0 0.0 0.0 0.00 0.00 0.00 81 1021.6
20260509182904 58 0 0.0 0.0 0.00 0.00 0.00 81 1021.6
20260509182705 58 0 0.0 0.0 0.00 0.00 0.00 81 1021.6
20260509182604 58 0 0.0 0.0 0.00 0.00 0.00 81 1021.6
20260509182504 58 0 0.0 0.0 0.00 0.00 0.00 81 1021.6
20260509182406 58 0 0.0 0.0 0.00 0.00 0.00 81 1021.7
20260509182206 58 244 0.0 1.0 0.00 0.00 0.00 81 1021.5
20260509182106 58 244 0.0 1.0 0.00 0.00 0.00 81 1021.5
20260509182006 58 244 0.0 1.0 0.00 0.00 0.00 81 1021.4
20260509181906 58 244 0.0 1.0 0.00 0.00 0.00 81 1021.2
20260509181806 58 244 0.0 1.0 0.00 0.00 0.00 81 1021.6
20260509181720 58 244 0.0 1.0 0.00 0.00 0.00 81 1021.6
20260509181705 58 244 0.0 1.0 0.00 0.00 0.00 81 1021.4
20260509181604 58 244 0.0 1.0 0.00 0.00 0.00 81 1021.4
20260509181406 58 244 0.0 1.0 0.00 0.00 0.00 81 1021.4
20260509181304 58 244 0.0 1.0 0.00 0.00 0.00 81 1021.4
20260509181221 58 244 0.0 1.0 0.00 0.00 0.00 81 1021.4
20260509181206 58 244 0.0 1.0 0.00 0.00 0.00 81 1021.5
20260509181119 58 244 0.0 1.0 0.00 0.00 0.00 81 1021.5
20260509181106 58 244 0.0 1.0 0.00 0.00 0.00 81 1021.3
20260509180919 58 244 0.0 1.0 0.00 0.00 0.00 81 1021.5
20260509180806 58 244 0.0 1.0 0.00 0.00 0.00 81 1021.2
20260509180718 58 244 0.0 1.0 0.00 0.00 0.00 81 1021.2
20260509180606 58 244 0.0 1.0 0.00 0.00 0.00 81 1021.5
20260509180407 58 244 0.0 1.0 0.00 0.00 0.00 81 1021.4
20260509180306 58 244 0.0 1.0 0.00 0.00 0.00 81 1021.5
20260509180219 58 244 0.0 1.0 0.00 0.00 0.00 81 1021.5
20260509180205 58 244 0.0 1.0 0.00 0.00 0.00 81 1021.4
20260509180105 58 244 0.0 1.0 0.00 0.00 0.00 81 1021.4
20260509175805 58 0 0.0 0.0 0.00 0.00 0.00 81 1021.5
20260509175705 58 0 0.0 0.0 0.00 0.00 0.00 81 1021.1
20260509175605 58 0 0.0 0.0 0.00 0.00 0.00 81 1021.3
20260509175506 58 0 0.0 0.0 0.00 0.00 0.00 81 1021.3
20260509175406 58 0 0.0 0.0 0.00 0.00 0.00 81 1021.2
20260509175306 58 0 0.0 0.0 0.00 0.00 0.00 81 1021.2
20260509175206 58 0 0.0 0.0 0.00 0.00 0.00 81 1021.4
20260509175106 58 0 0.0 0.0 0.00 0.00 0.00 81 1021.4
20260509175006 58 0 0.0 0.0 0.00 0.00 0.00 81 1021.2
20260509174906 58 244 0.0 1.0 0.00 0.00 0.00 81 1021.4
20260509174806 58 243 0.0 2.0 0.00 0.00 0.00 81 1021.4
20260509174705 58 243 0.0 2.0 0.00 0.00 0.00 81 1021.5
20260509174605 58 243 0.0 2.0 0.00 0.00 0.00 81 1021.3
20260509174505 58 242 0.0 2.0 0.00 0.00 0.00 81 1021.1
20260509174406 58 240 0.0 2.0 0.00 0.00 0.00 81 1021.2
20260509174306 58 239 0.0 2.0 0.00 0.00 0.00 81 1021.1
20260509174205 57 239 0.0 2.0 0.00 0.00 0.00 81 1021.1
20260509174119 57 239 0.0 2.0 0.00 0.00 0.00 81 1021.1
20260509174105 57 239 0.0 2.0 0.00 0.00 0.00 81 1021.3
20260509174004 57 239 0.0 2.0 0.00 0.00 0.00 81 1021.0
20260509173819 57 234 0.0 2.0 0.00 0.00 0.00 81 1021.3
20260509173806 57 233 0.0 2.0 0.00 0.00 0.00 81 1021.2
20260509173705 57 232 0.0 2.0 0.00 0.00 0.00 81 1021.0
20260509173506 57 232 0.0 2.0 0.00 0.00 0.00 81 1021.1
20260509173405 57 230 0.0 2.0 0.00 0.00 0.00 81 1021.0
20260509173320 57 229 0.0 2.0 0.00 0.00 0.00 81 1021.0
20260509173304 57 229 0.0 2.0 0.00 0.00 0.00 81 1020.9
20260509173206 57 229 0.0 2.0 0.00 0.00 0.00 81 1021.1
20260509173006 57 229 0.0 2.0 0.00 0.00 0.00 81 1021.2
20260509172920 57 228 0.0 2.0 0.00 0.00 0.00 81 1021.2
20260509172906 57 228 0.0 2.0 0.00 0.00 0.00 81 1021.1
20260509172821 57 228 0.0 2.0 0.00 0.00 0.00 81 1021.1
20260509172806 57 228 0.0 2.0 0.00 0.00 0.00 81 1021.3
20260509172505 57 226 0.0 1.0 0.00 0.00 0.00 81 1021.1
20260509172419 57 226 0.0 1.0 0.00 0.00 0.00 81 1021.1
20260509172405 57 226 0.0 1.0 0.00 0.00 0.00 81 1021.2
20260509172307 57 226 0.0 1.0 0.00 0.00 0.00 81 1020.9
20260509172106 57 226 0.0 1.0 0.00 0.00 0.00 81 1021.1
20260509172005 57 226 0.0 1.0 0.00 0.00 0.00 81 1021.2
20260509171921 57 226 0.0 1.0 0.00 0.00 0.00 81 1021.2
20260509171906 57 226 0.0 1.0 0.00 0.00 0.00 81 1021.1
20260509171806 57 226 0.0 1.0 0.00 0.00 0.00 81 1020.9
20260509171604 57 226 0.0 1.0 0.00 0.00 0.00 81 1021.0
20260509171519 57 226 0.0 1.0 0.00 0.00 0.00 81 1021.0
20260509171505 57 226 0.0 1.0 0.00 0.00 0.00 81 1021.1
20260509171419 57 226 0.0 1.0 0.00 0.00 0.00 81 1021.1
20260509171405 57 226 0.0 1.0 0.00 0.00 0.00 81 1021.0
20260509171320 57 226 0.0 1.0 0.00 0.00 0.00 81 1021.0
20260509171005 57 226 0.0 1.0 0.00 0.00 0.00 81 1021.1
20260509170905 57 226 0.0 1.0 0.00 0.00 0.00 81 1021.1
20260509170706 57 226 0.0 1.0 0.00 0.00 0.00 81 1021.3
20260509170606 57 226 0.0 1.0 0.00 0.00 0.00 81 1021.3
20260509170506 57 226 0.0 1.0 0.00 0.00 0.00 81 1021.1
20260509170405 57 226 0.0 1.0 0.00 0.00 0.00 81 1021.1
20260509170304 57 226 0.0 1.0 0.00 0.00 0.00 81 1021.1
20260509170206 57 226 0.0 1.0 0.00 0.00 0.00 80 1021.0
20260509170106 57 226 0.0 1.0 0.00 0.00 0.00 80 1021.1
20260509170020 57 226 0.0 1.0 0.00 0.00 0.00 80 1021.1
20260509170006 57 226 0.0 1.0 0.00 0.00 0.00 80 1021.0
20260509165918 57 226 0.0 2.0 0.00 0.00 0.00 80 1021.0
20260509165905 57 226 0.0 2.0 0.00 0.00 0.00 80 1021.2
20260509165606 57 226 0.0 2.0 0.00 0.00 0.00 80 1021.1
20260509165506 57 226 0.0 2.0 0.00 0.00 0.00 80 1021.1
20260509165405 57 226 0.0 2.0 0.00 0.00 0.00 80 1021.1
20260509165307 57 226 0.0 2.0 0.00 0.00 0.00 80 1021.1
20260509165206 57 226 0.0 2.0 0.00 0.00 0.00 80 1020.9
20260509165105 57 226 0.0 2.0 0.00 0.00 0.00 80 1021.3
20260509165005 57 226 0.0 2.0 0.00 0.00 0.00 80 1021.0
20260509164905 57 0 0.0 0.0 0.00 0.00 0.00 80 1021.0
20260509164806 57 0 0.0 0.0 0.00 0.00 0.00 80 1021.3
20260509164706 57 0 0.0 0.0 0.00 0.00 0.00 80 1021.0
20260509164607 57 0 0.0 0.0 0.00 0.00 0.00 80 1021.2
20260509164506 57 0 0.0 0.0 0.00 0.00 0.00 80 1021.0
20260509164405 57 0 0.0 0.0 0.00 0.00 0.00 80 1021.1
20260509164320 57 226 0.0 1.0 0.00 0.00 0.00 80 1021.1
20260509164304 57 226 0.0 1.0 0.00 0.00 0.00 80 1021.2
20260509164221 57 226 0.0 1.0 0.00 0.00 0.00 80 1021.2
20260509164206 57 226 0.0 1.0 0.00 0.00 0.00 80 1021.1
20260509164020 57 226 0.0 1.0 0.00 0.00 0.00 80 1021.2
20260509163920 57 226 0.0 3.0 0.00 0.00 0.00 80 1021.1
20260509163904 57 226 0.0 3.0 0.00 0.00 0.00 80 1021.2
20260509163605 57 226 1.0 3.0 0.00 0.00 0.00 80 1021.1
20260509163506 57 225 1.0 3.0 0.00 0.00 0.00 80 1021.1
20260509163406 57 224 1.0 3.0 0.00 0.00 0.00 80 1021.2
20260509163306 57 223 1.0 3.0 0.00 0.00 0.00 80 1021.2
20260509163205 57 223 1.0 3.0 0.00 0.00 0.00 80 1021.2
20260509163106 57 222 1.0 3.0 0.00 0.00 0.00 80 1021.0
20260509163005 57 221 1.0 3.0 0.00 0.00 0.00 80 1021.1
20260509162905 57 220 1.0 3.0 0.00 0.00 0.00 80 1021.0
20260509162804 57 219 1.0 3.0 0.00 0.00 0.00 80 1021.0
20260509162706 57 218 1.0 3.0 0.00 0.00 0.00 80 1021.1
20260509162605 57 217 1.0 3.0 0.00 0.00 0.00 80 1021.1
20260509162506 57 218 1.0 3.0 0.00 0.00 0.00 80 1021.0
20260509162421 57 219 1.0 3.0 0.00 0.00 0.00 80 1021.0
20260509162405 57 219 1.0 3.0 0.00 0.00 0.00 80 1021.1
20260509162307 57 219 1.0 3.0 0.00 0.00 0.00 80 1021.3
20260509162106 57 221 1.0 3.0 0.00 0.00 0.00 80 1021.3
20260509162011 57 221 1.0 3.0 0.00 0.00 0.00 80 1021.2
20260509161906 57 223 1.0 3.0 0.00 0.00 0.00 80 1021.0
20260509161805 57 225 1.0 3.0 0.00 0.00 0.00 80 1021.1
20260509161706 57 227 1.0 3.0 0.00 0.00 0.00 80 1021.3
20260509161605 57 225 1.0 3.0 0.00 0.00 0.00 80 1021.1
20260509161504 57 223 1.0 3.0 0.00 0.00 0.00 80 1021.1
20260509161406 57 224 1.0 3.0 0.00 0.00 0.00 80 1021.1
20260509161305 57 224 2.0 3.0 0.00 0.00 0.00 80 1021.0
20260509161205 57 224 2.0 3.0 0.00 0.00 0.00 80 1021.2
20260509161105 57 224 2.0 3.0 0.00 0.00 0.00 80 1021.1
20260509161005 57 225 2.0 3.0 0.00 0.00 0.00 80 1021.1
20260509160905 57 225 2.0 3.0 0.00 0.00 0.00 80 1020.8
20260509160806 57 224 2.0 3.0 0.00 0.00 0.00 80 1020.9
20260509160706 57 222 2.0 4.0 0.00 0.00 0.00 80 1021.1
20260509160605 57 223 2.0 4.0 0.00 0.00 0.00 80 1021.0
20260509160506 57 224 2.0 4.0 0.00 0.00 0.00 80 1020.9
20260509160404 57 223 2.0 4.0 0.00 0.00 0.00 80 1021.2
20260509160306 57 220 2.0 4.0 0.00 0.00 0.00 80 1021.2
20260509160206 57 220 2.0 4.0 0.00 0.00 0.00 80 1021.0
20260509160104 57 219 2.0 4.0 0.00 0.00 0.00 80 1021.2
20260509160006 57 217 2.0 4.0 0.00 0.00 0.00 80 1021.1
20260509155920 57 215 2.0 4.0 0.00 0.00 0.00 80 1021.1
20260509155906 57 214 2.0 4.0 0.00 0.00 0.00 80 1021.0
20260509155805 57 214 2.0 4.0 0.00 0.00 0.00 80 1021.0
20260509155605 57 215 2.0 4.0 0.00 0.00 0.00 80 1021.3
20260509155506 57 215 2.0 4.0 0.00 0.00 0.00 80 1021.2
20260509155406 57 214 2.0 4.0 0.00 0.00 0.00 80 1021.2
20260509155320 57 214 2.0 4.0 0.00 0.00 0.00 80 1021.2
20260509155306 57 214 2.0 4.0 0.00 0.00 0.00 80 1021.0
20260509155004 57 215 2.0 4.0 0.00 0.00 0.00 80 1021.1
20260509154905 57 215 2.0 4.0 0.00 0.00 0.00 80 1021.1
20260509154821 57 215 2.0 4.0 0.00 0.00 0.00 80 1021.1
20260509154805 57 214 2.0 4.0 0.00 0.00 0.00 80 1021.0
20260509154705 57 213 2.0 4.0 0.00 0.00 0.00 80 1021.0
20260509154620 57 211 2.0 4.0 0.00 0.00 0.00 80 1021.0
20260509154505 57 209 2.0 4.0 0.00 0.00 0.00 80 1021.3
20260509154306 57 210 2.0 4.0 0.00 0.00 0.00 80 1021.4
20260509154205 57 209 2.0 4.0 0.00 0.00 0.00 80 1021.4
20260509154106 57 208 2.0 4.0 0.00 0.00 0.00 80 1021.3
20260509154005 57 206 1.0 4.0 0.00 0.00 0.00 80 1021.5
20260509153906 57 207 1.0 3.0 0.00 0.00 0.00 80 1021.3
20260509153818 57 209 1.0 3.0 0.00 0.00 0.00 80 1021.3
20260509153805 57 209 1.0 3.0 0.00 0.00 0.00 80 1021.4
20260509153721 57 210 1.0 3.0 0.00 0.00 0.00 80 1021.4
20260509153705 57 211 1.0 3.0 0.00 0.00 0.00 80 1021.3
20260509153520 57 214 1.0 3.0 0.00 0.00 0.00 80 1021.4
20260509153421 57 214 1.0 3.0 0.00 0.00 0.00 80 1021.4
20260509153405 57 214 1.0 3.0 0.00 0.00 0.00 80 1021.5
20260509153319 57 215 1.0 3.0 0.00 0.00 0.00 80 1021.5
20260509153220 57 216 1.0 3.0 0.00 0.00 0.00 80 1021.3
20260509152920 57 216 1.0 3.0 0.00 0.00 0.00 80 1021.3
20260509152905 57 216 1.0 3.0 0.00 0.00 0.00 80 1021.5
20260509152805 57 216 1.0 3.0 0.00 0.00 0.00 80 1021.3
20260509152606 57 214 1.0 3.0 0.00 0.00 0.00 80 1021.5
20260509152505 57 213 1.0 3.0 0.00 0.00 0.00 80 1021.5
20260509152406 57 212 1.0 3.0 0.00 0.00 0.00 80 1021.1
20260509152307 57 213 1.0 3.0 0.00 0.00 0.00 80 1021.6
20260509152204 57 214 1.0 3.0 0.00 0.00 0.00 80 1021.5
20260509152106 57 214 1.0 3.0 0.00 0.00 0.00 80 1021.3
20260509152005 57 213 1.0 3.0 0.00 0.00 0.00 80 1021.3
20260509151906 57 212 1.0 3.0 0.00 0.00 0.00 80 1021.6
20260509151806 57 211 1.0 3.0 0.00 0.00 0.00 80 1021.4
20260509151706 57 208 1.0 3.0 0.00 0.00 0.00 80 1021.5
20260509151605 57 208 1.0 3.0 0.00 0.00 0.00 80 1021.5
20260509151504 57 207 1.0 3.0 0.00 0.00 0.00 80 1021.6
20260509151419 57 206 1.0 3.0 0.00 0.00 0.00 80 1021.6
20260509151304 57 202 1.0 3.0 0.00 0.00 0.00 80 1021.5
20260509151105 57 197 1.0 3.0 0.00 0.00 0.00 80 1021.4
20260509151021 57 196 1.0 3.0 0.00 0.00 0.00 80 1021.4
20260509151006 57 196 1.0 3.0 0.00 0.00 0.00 80 1021.7
20260509150705 57 195 1.0 2.0 0.00 0.00 0.00 79 1021.5
20260509150605 57 195 1.0 2.0 0.00 0.00 0.00 79 1021.7
20260509150506 57 195 1.0 2.0 0.00 0.00 0.00 79 1021.6
20260509150406 57 193 1.0 3.0 0.00 0.00 0.00 79 1021.5
20260509150306 57 195 1.0 3.0 0.00 0.00 0.00 79 1021.3
20260509150220 57 195 1.0 3.0 0.00 0.00 0.00 79 1021.3
20260509150206 57 195 1.0 3.0 0.00 0.00 0.00 79 1021.6
20260509150106 57 196 1.0 3.0 0.00 0.00 0.00 79 1021.6
20260509145905 57 198 1.0 3.0 0.00 0.00 0.00 79 1021.6
20260509145805 57 199 1.0 3.0 0.00 0.00 0.00 79 1021.5
20260509145706 57 200 1.0 3.0 0.00 0.00 0.00 79 1021.7
20260509145605 57 202 1.0 3.0 0.00 0.00 0.00 79 1021.6
20260509145505 57 203 1.0 3.0 0.00 0.00 0.00 79 1021.6
20260509145406 57 209 1.0 2.0 0.00 0.00 0.00 79 1021.6
20260509145306 57 208 1.0 2.0 0.00 0.00 0.00 79 1021.8
20260509145205 57 208 1.0 2.0 0.00 0.00 0.00 79 1021.6
20260509145106 57 208 1.0 2.0 0.00 0.00 0.00 79 1021.7
20260509145006 57 208 1.0 2.0 0.00 0.00 0.00 79 1021.6
20260509144820 57 207 1.0 2.0 0.00 0.00 0.00 79 1021.5
20260509144805 57 207 1.0 2.0 0.00 0.00 0.00 79 1021.7
20260509144704 57 209 1.0 2.0 0.00 0.00 0.00 79 1021.6
20260509144504 57 212 1.0 3.0 0.00 0.00 0.00 79 1021.5
20260509144407 57 212 1.0 3.0 0.00 0.00 0.00 79 1021.5
20260509144204 57 213 1.0 3.0 0.00 0.00 0.00 79 1021.7
20260509144106 57 213 1.0 3.0 0.00 0.00 0.00 79 1021.7
20260509144005 57 214 1.0 3.0 0.00 0.00 0.00 79 1021.8
20260509143906 57 214 1.0 3.0 0.00 0.00 0.00 79 1021.6
20260509143806 58 215 1.0 3.0 0.00 0.00 0.00 79 1021.7
20260509143706 58 215 1.0 3.0 0.00 0.00 0.00 79 1021.5
20260509143606 58 214 1.0 3.0 0.00 0.00 0.00 79 1021.6
20260509143506 58 214 1.0 3.0 0.00 0.00 0.00 79 1021.6
20260509143406 58 215 1.0 3.0 0.00 0.00 0.00 79 1021.7
20260509143305 58 217 1.0 3.0 0.00 0.00 0.00 79 1021.7
20260509143205 58 218 1.0 3.0 0.00 0.00 0.00 79 1021.7
20260509143105 58 220 1.0 3.0 0.00 0.00 0.00 79 1021.8
20260509143005 58 222 1.0 3.0 0.00 0.00 0.00 79 1021.6
20260509142921 58 223 1.0 3.0 0.00 0.00 0.00 79 1021.6
20260509142906 58 224 1.0 3.0 0.00 0.00 0.00 79 1021.6
20260509142804 58 224 1.0 3.0 0.00 0.00 0.00 79 1021.7
20260509142606 58 228 1.0 3.0 0.00 0.00 0.00 79 1021.7
20260509142505 58 231 1.0 2.0 0.00 0.00 0.00 79 1021.7
20260509142420 58 231 1.0 2.0 0.00 0.00 0.00 79 1021.7
20260509142404 58 231 1.0 2.0 0.00 0.00 0.00 79 1021.8
20260509142307 58 231 1.0 2.0 0.00 0.00 0.00 79 1021.7
20260509142106 58 231 1.0 2.0 0.00 0.00 0.00 79 1021.7
20260509142005 58 231 1.0 1.0 0.00 0.00 0.00 79 1021.8
20260509141905 58 231 0.0 1.0 0.00 0.00 0.00 79 1021.7
20260509141805 58 231 0.0 1.0 0.00 0.00 0.00 79 1021.7
20260509141705 58 231 1.0 1.0 0.00 0.00 0.00 79 1021.8
20260509141504 58 231 1.0 1.0 0.00 0.00 0.00 79 1021.7
20260509141405 58 231 1.0 1.0 0.00 0.00 0.00 79 1021.8
20260509141305 58 231 0.0 1.0 0.00 0.00 0.00 79 1021.8
20260509141204 58 231 0.0 1.0 0.00 0.00 0.00 79 1021.8
20260509141106 58 231 0.0 1.0 0.00 0.00 0.00 79 1022.0
20260509141005 58 231 0.0 1.0 0.00 0.00 0.00 79 1021.9
20260509140907 58 231 0.0 1.0 0.00 0.00 0.00 79 1021.7
20260509140805 58 231 0.0 1.0 0.00 0.00 0.00 79 1021.9
20260509140705 58 231 0.0 1.0 0.00 0.00 0.00 79 1021.9
20260509140619 58 231 0.0 1.0 0.00 0.00 0.00 79 1021.9
20260509140605 58 231 0.0 1.0 0.00 0.00 0.00 79 1021.8
20260509140520 58 231 0.0 1.0 0.00 0.00 0.00 79 1021.8
20260509140506 58 231 0.0 1.0 0.00 0.00 0.00 79 1021.9
20260509140205 58 231 0.0 1.0 0.00 0.00 0.00 79 1022.1
20260509140105 58 231 0.0 1.0 0.00 0.00 0.00 79 1021.9
20260509140006 58 231 0.0 1.0 0.00 0.00 0.00 79 1022.0
20260509135905 58 231 0.0 1.0 0.00 0.00 0.00 79 1021.8
20260509135804 58 231 0.0 1.0 0.00 0.00 0.00 79 1022.1
20260509135705 58 231 0.0 1.0 0.00 0.00 0.00 79 1022.0
20260509135605 58 231 0.0 1.0 0.00 0.00 0.00 79 1021.9
20260509135520 58 231 0.0 1.0 0.00 0.00 0.00 79 1021.9
20260509135506 58 230 0.0 1.0 0.00 0.00 0.00 79 1022.1
20260509135405 58 229 0.0 1.0 0.00 0.00 0.00 79 1021.9
20260509135206 58 230 0.0 1.0 0.00 0.00 0.00 79 1021.9
20260509135106 58 238 0.0 2.0 0.00 0.00 0.00 79 1022.0
20260509135005 58 241 1.0 2.0 0.00 0.00 0.00 79 1022.0
20260509134906 58 238 1.0 2.0 0.00 0.00 0.00 79 1021.7
20260509134806 58 237 1.0 2.0 0.00 0.00 0.00 79 1021.8
20260509134704 58 235 1.0 2.0 0.00 0.00 0.00 79 1022.0
20260509134605 58 232 1.0 2.0 0.00 0.00 0.00 79 1021.7
20260509134505 58 229 1.0 2.0 0.00 0.00 0.00 79 1021.8
20260509134420 58 230 1.0 2.0 0.00 0.00 0.00 79 1021.8
20260509134406 58 230 1.0 2.0 0.00 0.00 0.00 79 1021.7
20260509134306 58 230 1.0 2.0 0.00 0.00 0.00 79 1022.0
20260509134106 58 225 1.0 2.0 0.00 0.00 0.00 79 1021.8
20260509134006 58 218 1.0 2.0 0.00 0.00 0.00 79 1021.8
20260509133906 58 217 0.0 2.0 0.00 0.00 0.00 79 1021.7
20260509133820 58 212 0.0 2.0 0.00 0.00 0.00 79 1021.7
20260509133805 58 211 0.0 2.0 0.00 0.00 0.00 79 1022.1
20260509133705 58 211 0.0 2.0 0.00 0.00 0.00 79 1022.0
20260509133506 59 210 0.0 1.0 0.00 0.00 0.00 79 1021.8
20260509133404 59 210 0.0 1.0 0.00 0.00 0.00 79 1021.9
20260509133306 59 210 0.0 1.0 0.00 0.00 0.00 79 1022.0
20260509133204 59 210 1.0 1.0 0.00 0.00 0.00 79 1022.1
20260509133106 59 210 1.0 1.0 0.00 0.00 0.00 79 1021.9
20260509133020 59 210 1.0 1.0 0.00 0.00 0.00 78 1021.9
20260509133005 59 210 1.0 1.0 0.00 0.00 0.00 78 1022.0
20260509132921 59 210 1.0 1.0 0.00 0.00 0.00 79 1022.0
20260509132905 59 210 1.0 1.0 0.00 0.00 0.00 79 1021.9
20260509132819 59 210 1.0 1.0 0.00 0.00 0.00 79 1021.9
20260509132519 59 210 0.0 2.0 0.00 0.00 0.00 79 1022.0
20260509132506 59 211 0.0 2.0 0.00 0.00 0.00 79 1022.1
20260509132404 59 212 0.0 2.0 0.00 0.00 0.00 79 1022.1
20260509132207 59 214 1.0 2.0 0.00 0.00 0.00 79 1021.9
20260509132105 59 216 1.0 4.0 0.00 0.00 0.00 79 1021.9
20260509132006 59 215 1.0 4.0 0.00 0.00 0.00 79 1022.0
20260509131921 59 214 1.0 4.0 0.00 0.00 0.00 79 1022.0
20260509131906 59 214 1.0 4.0 0.00 0.00 0.00 79 1021.9
20260509131805 59 213 1.0 4.0 0.00 0.00 0.00 79 1021.8
20260509131606 59 219 1.0 4.0 0.00 0.00 0.00 79 1021.9
20260509131506 59 218 2.0 4.0 0.00 0.00 0.00 79 1021.9
20260509131406 59 218 2.0 4.0 0.00 0.00 0.00 78 1021.5
20260509131305 59 219 2.0 6.0 0.00 0.00 0.00 78 1021.7
20260509131206 59 218 2.0 6.0 0.00 0.00 0.00 78 1021.6
20260509131105 59 219 2.0 6.0 0.00 0.00 0.00 78 1021.7
20260509131018 59 219 2.0 6.0 0.00 0.00 0.00 78 1021.7
20260509131004 59 219 2.0 6.0 0.00 0.00 0.00 78 1021.8
20260509130906 59 220 2.0 6.0 0.00 0.00 0.00 78 1021.7
20260509130718 59 222 2.0 7.0 0.00 0.00 0.00 78 1022.0
20260509130706 59 221 2.0 7.0 0.00 0.00 0.00 78 1021.9
20260509130606 59 220 2.0 7.0 0.00 0.00 0.00 78 1021.8
20260509130407 59 221 2.0 7.0 0.00 0.00 0.00 78 1021.8
20260509130306 59 218 2.0 7.0 0.00 0.00 0.00 78 1021.8
20260509130204 59 218 3.0 7.0 0.00 0.00 0.00 78 1021.8
20260509130106 59 217 3.0 7.0 0.00 0.00 0.00 78 1021.7
20260509130005 59 217 3.0 7.0 0.00 0.00 0.00 78 1021.7
20260509125905 59 218 3.0 7.0 0.00 0.00 0.00 78 1021.8
20260509125805 59 217 3.0 7.0 0.00 0.00 0.00 78 1021.5
20260509125706 59 216 3.0 7.0 0.00 0.00 0.00 78 1021.8
20260509125605 59 215 3.0 7.0 0.00 0.00 0.00 78 1021.5
20260509125505 59 214 3.0 7.0 0.00 0.00 0.00 78 1021.6
20260509125406 59 216 3.0 7.0 0.00 0.00 0.00 78 1021.4
20260509125308 59 218 3.0 7.0 0.00 0.00 0.00 78 1021.9
20260509125206 59 218 3.0 7.0 0.00 0.00 0.00 78 1021.6
20260509125105 59 219 3.0 7.0 0.00 0.00 0.00 78 1021.8
20260509125005 59 219 3.0 7.0 0.00 0.00 0.00 78 1021.8
20260509124906 59 219 3.0 7.0 0.00 0.00 0.00 78 1021.5
20260509124705 59 220 3.0 7.0 0.00 0.00 0.00 78 1021.6
20260509124606 59 220 3.0 7.0 0.00 0.00 0.00 78 1021.7
20260509124505 59 219 3.0 7.0 0.00 0.00 0.00 78 1021.6
20260509124406 59 218 3.0 7.0 0.00 0.00 0.00 78 1021.7
20260509124307 59 217 3.0 7.0 0.00 0.00 0.00 78 1021.3
20260509124219 59 218 3.0 7.0 0.00 0.00 0.00 78 1021.3
20260509124206 59 218 3.0 6.0 0.00 0.00 0.00 78 1021.7
20260509124106 59 219 2.0 6.0 0.00 0.00 0.00 78 1021.6
20260509123906 59 216 2.0 6.0 0.00 0.00 0.00 78 1021.5
20260509123806 59 214 2.0 4.0 0.00 0.00 0.00 78 1021.8
20260509123706 59 215 2.0 4.0 0.00 0.00 0.00 78 1021.8
20260509123606 59 214 2.0 4.0 0.00 0.00 0.00 78 1021.8
20260509123406 59 212 2.0 4.0 0.00 0.00 0.00 78 1021.7
20260509123306 59 211 2.0 3.0 0.00 0.00 0.00 78 1021.7
20260509123205 59 212 2.0 3.0 0.00 0.00 0.00 78 1021.6
20260509123105 59 213 1.0 3.0 0.00 0.00 0.00 78 1021.7
20260509123020 59 214 1.0 3.0 0.00 0.00 0.00 78 1021.7
20260509123006 59 215 1.0 3.0 0.00 0.00 0.00 78 1021.7
20260509122906 59 219 2.0 3.0 0.00 0.00 0.00 78 1021.7
20260509122706 59 213 1.0 3.0 0.00 0.00 0.00 78 1021.6
20260509122604 59 210 1.0 3.0 0.00 0.00 0.00 78 1021.7
20260509122506 59 206 1.0 3.0 0.00 0.00 0.00 78 1021.7
20260509122405 59 201 1.0 3.0 0.00 0.00 0.00 78 1021.5
20260509122306 59 195 1.0 3.0 0.00 0.00 0.00 78 1021.7
20260509122206 59 190 1.0 3.0 0.00 0.00 0.00 78 1021.6
20260509122105 59 186 1.0 3.0 0.00 0.00 0.00 78 1021.6
20260509122020 59 179 1.0 3.0 0.00 0.00 0.00 78 1021.6
20260509122005 59 175 1.0 3.0 0.00 0.00 0.00 78 1021.7
20260509121906 59 154 0.0 2.0 0.00 0.00 0.00 78 1021.4
20260509121705 59 134 0.0 1.0 0.00 0.00 0.00 78 1021.7
20260509121620 59 134 0.0 1.0 0.00 0.00 0.00 78 1021.7
20260509121606 59 134 0.0 1.0 0.00 0.00 0.00 78 1021.5
20260509121506 59 134 0.0 1.0 0.00 0.00 0.00 78 1021.5
20260509121306 59 0 0.0 0.0 0.00 0.00 0.00 78 1021.8
20260509121206 59 0 0.0 0.0 0.00 0.00 0.00 78 1021.6
20260509121106 59 0 0.0 0.0 0.00 0.00 0.00 78 1021.5
20260509121020 59 0 0.0 0.0 0.00 0.00 0.00 77 1021.5
20260509121005 59 0 0.0 0.0 0.00 0.00 0.00 77 1021.7
20260509120905 59 0 0.0 0.0 0.00 0.00 0.00 77 1021.5
20260509120821 59 0 0.0 0.0 0.00 0.00 0.00 77 1021.5
20260509120706 59 0 0.0 0.0 0.00 0.00 0.00 77 1021.8
20260509120519 59 0 0.0 0.0 0.00 0.00 0.00 77 1021.7
20260509120507 59 0 0.0 0.0 0.00 0.00 0.00 77 1021.6
20260509120406 59 0 0.0 0.0 0.00 0.00 0.00 77 1021.6
20260509120320 59 0 0.0 0.0 0.00 0.00 0.00 77 1021.6
20260509120206 59 0 0.0 0.0 0.00 0.00 0.00 77 1021.6
20260509120006 59 0 0.0 0.0 0.00 0.00 0.00 77 1021.5
20260509115906 59 0 0.0 0.0 0.00 0.00 0.00 77 1021.7
20260509115806 59 0 0.0 0.0 0.00 0.00 0.00 77 1021.5
20260509115706 59 0 0.0 0.0 0.00 0.00 0.00 77 1021.4
20260509115604 59 0 0.0 0.0 0.00 0.00 0.00 77 1021.7
20260509115521 59 0 0.0 0.0 0.00 0.00 0.00 77 1021.7
20260509115506 59 0 0.0 0.0 0.00 0.00 0.00 77 1021.5
20260509115405 59 0 0.0 0.0 0.00 0.00 0.00 77 1021.6
20260509115320 59 0 0.0 0.0 0.00 0.00 0.00 77 1021.6
20260509115206 59 0 0.0 0.0 0.00 0.00 0.00 77 1021.6
20260509115006 59 0 0.0 0.0 0.00 0.00 0.00 77 1021.5
20260509114906 60 0 0.0 0.0 0.00 0.00 0.00 77 1021.6
20260509114806 60 0 0.0 0.0 0.00 0.00 0.00 77 1021.4
20260509114706 60 0 0.0 0.0 0.00 0.00 0.00 77 1021.5
20260509114606 60 0 0.0 0.0 0.00 0.00 0.00 77 1021.6
20260509114506 60 0 0.0 0.0 0.00 0.00 0.00 77 1021.7
20260509114406 60 0 0.0 0.0 0.00 0.00 0.00 77 1021.6
20260509114306 60 0 0.0 0.0 0.00 0.00 0.00 77 1021.5
20260509114206 60 0 0.0 0.0 0.00 0.00 0.00 77 1021.6
20260509114106 60 0 0.0 0.0 0.00 0.00 0.00 77 1021.7
20260509114005 60 0 0.0 0.0 0.00 0.00 0.00 77 1021.7
20260509113905 59 134 0.0 1.0 0.00 0.00 0.00 77 1021.7
20260509113605 60 134 0.0 1.0 0.00 0.00 0.00 77 1021.7
20260509113506 60 134 0.0 1.0 0.00 0.00 0.00 77 1021.8
20260509113419 60 134 0.0 1.0 0.00 0.00 0.00 77 1021.8
20260509113406 59 134 0.0 1.0 0.00 0.00 0.00 77 1021.4
20260509113306 60 134 0.0 1.0 0.00 0.00 0.00 77 1021.9
20260509113220 60 134 0.0 1.0 0.00 0.00 0.00 77 1021.9
20260509113106 60 134 0.0 1.0 0.00 0.00 0.00 77 1021.6
20260509112906 60 134 0.0 1.0 0.00 0.00 0.00 77 1021.7
20260509112806 60 134 0.0 1.0 0.00 0.00 0.00 77 1021.8
20260509112706 60 134 0.0 1.0 0.00 0.00 0.00 77 1021.5
20260509112605 60 134 0.0 1.0 0.00 0.00 0.00 77 1021.8
20260509112507 60 134 0.0 1.0 0.00 0.00 0.00 77 1021.5
20260509112405 60 134 0.0 1.0 0.00 0.00 0.00 77 1021.6
20260509112320 60 134 0.0 1.0 0.00 0.00 0.00 77 1021.6
20260509112307 60 134 0.0 1.0 0.00 0.00 0.00 77 1021.5
20260509112221 60 0 0.0 0.0 0.00 0.00 0.00 77 1021.5
20260509112205 60 0 0.0 0.0 0.00 0.00 0.00 77 1021.7
20260509112019 60 0 0.0 0.0 0.00 0.00 0.00 77 1021.9
20260509111904 60 0 0.0 0.0 0.00 0.00 0.00 77 1021.7
20260509111706 60 0 0.0 0.0 0.00 0.00 0.00 77 1021.8
20260509111605 60 0 0.0 0.0 0.00 0.00 0.00 77 1021.6
20260509111521 60 0 0.0 0.0 0.00 0.00 0.00 77 1021.6
20260509111505 60 0 0.0 0.0 0.00 0.00 0.00 77 1021.5
20260509111405 60 0 0.0 0.0 0.00 0.00 0.00 77 1021.7
20260509111205 60 0 0.0 0.0 0.00 0.00 0.00 76 1021.8
20260509111121 60 0 0.0 0.0 0.00 0.00 0.00 76 1021.8
20260509111105 60 0 0.0 0.0 0.00 0.00 0.00 76 1021.9
20260509111004 60 0 0.0 0.0 0.00 0.00 0.00 76 1021.7
20260509110806 60 0 0.0 0.0 0.00 0.00 0.00 76 1021.7
20260509110706 60 0 0.0 0.0 0.00 0.00 0.00 76 1021.8
20260509110606 60 0 0.0 0.0 0.00 0.00 0.00 76 1021.7
20260509110506 60 0 0.0 0.0 0.00 0.00 0.00 76 1021.7
20260509110421 60 0 0.0 0.0 0.00 0.00 0.00 76 1021.7
20260509110405 60 0 0.0 0.0 0.00 0.00 0.00 76 1021.8
20260509110305 60 0 0.0 0.0 0.00 0.00 0.00 76 1021.9
20260509110220 60 0 0.0 0.0 0.00 0.00 0.00 76 1021.9
20260509110105 60 134 0.0 1.0 0.00 0.00 0.00 76 1021.8
20260509105906 60 134 0.0 1.0 0.00 0.00 0.00 76 1021.8
20260509105806 60 134 0.0 1.0 0.00 0.00 0.00 76 1021.8
20260509105606 60 134 0.0 1.0 0.00 0.00 0.00 76 1021.9
20260509105505 60 134 0.0 1.0 0.00 0.00 0.00 76 1021.8
20260509105404 60 134 0.0 1.0 0.00 0.00 0.00 76 1021.8
20260509105307 60 134 0.0 1.0 0.00 0.00 0.00 76 1021.7
20260509105206 60 134 0.0 1.0 0.00 0.00 0.00 76 1021.8
20260509105119 60 0 0.0 0.0 0.00 0.00 0.00 76 1021.8
20260509105106 60 0 0.0 0.0 0.00 0.00 0.00 76 1021.9
20260509105005 60 0 0.0 0.0 0.00 0.00 0.00 76 1021.8
20260509104920 60 0 0.0 0.0 0.00 0.00 0.00 76 1021.8
20260509104806 60 0 0.0 0.0 0.00 0.00 0.00 76 1021.9
20260509104721 60 0 0.0 0.0 0.00 0.00 0.00 76 1021.9
20260509104606 60 0 0.0 0.0 0.00 0.00 0.00 76 1021.7
20260509104406 60 0 0.0 0.0 0.00 0.00 0.00 76 1021.8
20260509104306 60 0 0.0 0.0 0.00 0.00 0.00 76 1021.8
20260509104205 60 0 0.0 0.0 0.00 0.00 0.00 76 1021.9
20260509104108 60 0 0.0 0.0 0.00 0.00 0.00 76 1021.9
20260509104021 60 0 0.0 0.0 0.00 0.00 0.00 76 1021.9
20260509104005 60 0 0.0 0.0 0.00 0.00 0.00 76 1021.7
20260509103905 60 0 0.0 0.0 0.00 0.00 0.00 76 1021.7
20260509103721 60 0 0.0 0.0 0.00 0.00 0.00 76 1021.7
20260509103706 60 0 0.0 0.0 0.00 0.00 0.00 76 1021.8
20260509103605 60 0 0.0 0.0 0.00 0.00 0.00 76 1021.8
20260509103421 60 0 0.0 0.0 0.00 0.00 0.00 76 1021.5
20260509103405 60 0 0.0 0.0 0.00 0.00 0.00 76 1021.7
20260509103306 60 0 0.0 0.0 0.00 0.00 0.00 76 1021.6
20260509103106 60 0 0.0 0.0 0.00 0.00 0.00 76 1021.7
20260509103006 60 0 0.0 0.0 0.00 0.00 0.00 76 1021.6
20260509102920 60 0 0.0 0.0 0.00 0.00 0.00 76 1021.6
20260509102906 60 0 0.0 0.0 0.00 0.00 0.00 76 1021.9
20260509102805 60 0 0.0 0.0 0.00 0.00 0.00 75 1021.7
20260509102605 60 0 0.0 0.0 0.00 0.00 0.00 75 1021.7
20260509102506 60 0 0.0 0.0 0.00 0.00 0.00 75 1021.5
20260509102406 60 0 0.0 0.0 0.00 0.00 0.00 75 1021.5
20260509102306 60 0 0.0 0.0 0.00 0.00 0.00 75 1021.4
20260509102206 60 0 0.0 0.0 0.00 0.00 0.00 75 1021.6
20260509102105 60 0 0.0 0.0 0.00 0.00 0.00 75 1021.7
20260509102006 60 0 0.0 0.0 0.00 0.00 0.00 75 1021.5
20260509101905 60 0 0.0 0.0 0.00 0.00 0.00 75 1021.5
20260509101805 60 0 0.0 0.0 0.00 0.00 0.00 75 1021.4
20260509101706 60 0 0.0 0.0 0.00 0.00 0.00 75 1021.7
20260509101604 60 0 0.0 0.0 0.00 0.00 0.00 75 1021.7
20260509101520 60 0 0.0 0.0 0.00 0.00 0.00 75 1021.7
20260509101506 60 0 0.0 0.0 0.00 0.00 0.00 75 1021.3
20260509101421 60 0 0.0 0.0 0.00 0.00 0.00 75 1021.3
20260509101406 61 0 0.0 0.0 0.00 0.00 0.00 75 1021.4
20260509101106 61 0 0.0 0.0 0.00 0.00 0.00 75 1021.4
20260509101006 61 0 0.0 0.0 0.00 0.00 0.00 75 1021.5
20260509100905 61 0 0.0 0.0 0.00 0.00 0.00 75 1021.3
20260509100805 61 0 0.0 0.0 0.00 0.00 0.00 75 1021.4
20260509100721 61 0 0.0 0.0 0.00 0.00 0.00 75 1021.4
20260509100706 61 0 0.0 0.0 0.00 0.00 0.00 75 1021.5
20260509100606 61 0 0.0 0.0 0.00 0.00 0.00 75 1021.6
20260509100405 61 134 0.0 1.0 0.00 0.00 0.00 75 1021.5
20260509100306 61 134 0.0 1.0 0.00 0.00 0.00 75 1021.2
20260509100206 61 134 0.0 1.0 0.00 0.00 0.00 75 1021.6
20260509100106 61 134 0.0 1.0 0.00 0.00 0.00 75 1021.5
20260509100006 61 134 0.0 1.0 0.00 0.00 0.00 75 1021.5
20260509095906 61 134 0.0 1.0 0.00 0.00 0.00 75 1021.3
20260509095806 61 134 0.0 1.0 0.00 0.00 0.00 75 1021.4
20260509095705 61 134 0.0 1.0 0.00 0.00 0.00 75 1021.6
20260509095607 61 134 0.0 1.0 0.00 0.00 0.00 74 1021.5
20260509095506 61 134 0.0 1.0 0.00 0.00 0.00 74 1021.3
20260509095406 61 134 0.0 1.0 0.00 0.00 0.00 74 1021.5
20260509095306 61 134 0.0 1.0 0.00 0.00 0.00 74 1021.5
20260509095206 61 134 0.0 1.0 0.00 0.00 0.00 74 1021.5
20260509094904 61 134 1.0 3.0 0.00 0.00 0.00 74 1021.5
20260509094806 61 144 1.0 3.0 0.00 0.00 0.00 74 1021.5
20260509094606 61 157 1.0 3.0 0.00 0.00 0.00 74 1021.4
20260509094506 61 161 1.0 3.0 0.00 0.00 0.00 74 1021.7
20260509094406 61 161 1.0 3.0 0.00 0.00 0.00 74 1021.5
20260509094306 61 164 1.0 3.0 0.00 0.00 0.00 74 1021.4
20260509094206 61 168 1.0 3.0 0.00 0.00 0.00 74 1021.5
20260509094106 61 178 1.0 3.0 0.00 0.00 0.00 74 1021.4
20260509094006 61 190 1.0 3.0 0.00 0.00 0.00 74 1021.4
20260509093905 61 205 1.0 2.0 0.00 0.00 0.00 74 1021.4
20260509093806 61 206 0.0 2.0 0.00 0.00 0.00 74 1021.4
20260509093706 61 206 0.0 1.0 0.00 0.00 0.00 74 1021.1
20260509093505 61 206 0.0 1.0 0.00 0.00 0.00 74 1021.2
20260509093421 61 206 0.0 1.0 0.00 0.00 0.00 74 1021.2
20260509093405 61 206 0.0 1.0 0.00 0.00 0.00 74 1021.1
20260509093305 61 206 0.0 1.0 0.00 0.00 0.00 74 1021.3
20260509093106 61 206 0.0 1.0 0.00 0.00 0.00 74 1021.2
20260509093005 62 206 0.0 1.0 0.00 0.00 0.00 74 1021.2
20260509092905 62 206 0.0 1.0 0.00 0.00 0.00 74 1021.0
20260509092706 62 206 0.0 1.0 0.00 0.00 0.00 74 1021.0
20260509092606 62 206 0.0 1.0 0.00 0.00 0.00 73 1021.0
20260509092506 62 206 0.0 1.0 0.00 0.00 0.00 73 1021.4
20260509092406 62 206 0.0 1.0 0.00 0.00 0.00 73 1021.1
20260509092306 62 206 1.0 1.0 0.00 0.00 0.00 73 1021.1
20260509092206 62 206 1.0 1.0 0.00 0.00 0.00 73 1021.1
20260509092104 62 206 1.0 1.0 0.00 0.00 0.00 73 1021.0
20260509092004 62 206 1.0 1.0 0.00 0.00 0.00 73 1021.1
20260509091905 62 206 1.0 2.0 0.00 0.00 0.00 73 1021.1
20260509091806 62 205 1.0 2.0 0.00 0.00 0.00 73 1021.4
20260509091705 62 205 1.0 2.0 0.00 0.00 0.00 73 1021.1
20260509091606 62 205 1.0 2.0 0.00 0.00 0.00 73 1020.9
20260509091505 62 205 1.0 2.0 0.00 0.00 0.00 73 1021.1
20260509091406 62 205 1.0 2.0 0.00 0.00 0.00 73 1021.0
20260509091306 62 205 1.0 2.0 0.00 0.00 0.00 73 1021.2
20260509091206 62 206 1.0 2.0 0.00 0.00 0.00 73 1021.3
20260509091106 62 206 1.0 2.0 0.00 0.00 0.00 73 1021.1
20260509091006 62 206 1.0 2.0 0.00 0.00 0.00 73 1020.9
20260509090919 62 206 1.0 2.0 0.00 0.00 0.00 73 1020.9
20260509090904 62 206 1.0 2.0 0.00 0.00 0.00 73 1021.2
20260509090805 62 206 1.0 4.0 0.00 0.00 0.00 73 1021.0
20260509090721 62 206 1.0 4.0 0.00 0.00 0.00 73 1021.0
20260509090606 62 206 1.0 4.0 0.00 0.00 0.00 73 1021.2
20260509090405 62 206 1.0 4.0 0.00 0.00 0.00 73 1021.1
20260509090321 62 206 1.0 4.0 0.00 0.00 0.00 73 1021.1
20260509090306 62 206 1.0 4.0 0.00 0.00 0.00 73 1021.2
20260509090206 62 205 1.0 4.0 0.00 0.00 0.00 73 1021.0
20260509090006 62 205 1.0 4.0 0.00 0.00 0.00 73 1021.2
20260509085906 62 205 1.0 4.0 0.00 0.00 0.00 73 1021.1
20260509085805 62 205 1.0 3.0 0.00 0.00 0.00 72 1021.2
20260509085706 62 205 1.0 2.0 0.00 0.00 0.00 72 1020.9
20260509085606 62 205 1.0 2.0 0.00 0.00 0.00 72 1021.3
20260509085520 62 205 1.0 2.0 0.00 0.00 0.00 72 1021.3
20260509085506 62 205 1.0 2.0 0.00 0.00 0.00 72 1021.1
20260509085405 62 205 1.0 2.0 0.00 0.00 0.00 72 1021.0
20260509085206 62 205 1.0 2.0 0.00 0.00 0.00 72 1021.3
20260509085106 62 205 1.0 2.0 0.00 0.00 0.00 72 1021.0
20260509085005 62 205 1.0 2.0 0.00 0.00 0.00 72 1021.0
20260509084919 62 205 1.0 2.0 0.00 0.00 0.00 72 1021.0
20260509084907 62 205 1.0 2.0 0.00 0.00 0.00 72 1021.1
20260509084806 62 205 1.0 2.0 0.00 0.00 0.00 72 1021.2
20260509084605 62 205 1.0 2.0 0.00 0.00 0.00 72 1021.2
20260509084506 62 205 1.0 2.0 0.00 0.00 0.00 72 1020.9
20260509084406 62 205 1.0 2.0 0.00 0.00 0.00 72 1020.9
20260509084306 62 205 1.0 2.0 0.00 0.00 0.00 72 1020.9
20260509084206 62 205 1.0 2.0 0.00 0.00 0.00 71 1020.9
20260509084106 62 206 1.0 2.0 0.00 0.00 0.00 71 1020.9
20260509084006 62 206 1.0 2.0 0.00 0.00 0.00 71 1021.3
20260509083905 62 206 1.0 2.0 0.00 0.00 0.00 71 1020.9
20260509083805 62 206 1.0 2.0 0.00 0.00 0.00 71 1020.9
20260509083720 62 206 1.0 2.0 0.00 0.00 0.00 71 1020.9
20260509083704 62 206 1.0 2.0 0.00 0.00 0.00 71 1021.0
20260509083604 63 206 1.0 2.0 0.00 0.00 0.00 71 1020.8
20260509083404 63 206 0.0 2.0 0.00 0.00 0.00 71 1020.9
20260509083305 63 208 0.0 2.0 0.00 0.00 0.00 71 1020.9
20260509083204 63 211 0.0 2.0 0.00 0.00 0.00 71 1021.0
20260509083105 63 213 0.0 2.0 0.00 0.00 0.00 71 1020.9
20260509083004 63 216 0.0 2.0 0.00 0.00 0.00 71 1020.7
20260509082921 63 221 0.0 1.0 0.00 0.00 0.00 70 1020.7
20260509082905 63 222 0.0 1.0 0.00 0.00 0.00 70 1020.8
20260509082805 63 222 0.0 1.0 0.00 0.00 0.00 70 1020.8
20260509082606 63 222 0.0 1.0 0.00 0.00 0.00 70 1021.0
20260509082506 63 222 0.0 1.0 0.00 0.00 0.00 70 1021.0
20260509082406 63 222 0.0 1.0 0.00 0.00 0.00 70 1020.8
20260509082205 63 222 0.0 2.0 0.00 0.00 0.00 70 1020.8
20260509082120 63 222 0.0 2.0 0.00 0.00 0.00 70 1020.8
20260509082106 63 222 0.0 2.0 0.00 0.00 0.00 70 1020.7
20260509082006 63 222 0.0 2.0 0.00 0.00 0.00 70 1020.8
20260509081806 63 222 0.0 2.0 0.00 0.00 0.00 70 1020.9
20260509081706 64 222 0.0 2.0 0.00 0.00 0.00 70 1020.7
20260509081606 64 222 0.0 2.0 0.00 0.00 0.00 70 1020.7
20260509081506 64 222 0.0 2.0 0.00 0.00 0.00 70 1020.8
20260509081420 64 222 0.0 2.0 0.00 0.00 0.00 70 1020.8
20260509081406 64 222 0.0 2.0 0.00 0.00 0.00 70 1020.6
20260509081306 64 222 0.0 1.0 0.00 0.00 0.00 69 1020.4
20260509081104 64 222 0.0 1.0 0.00 0.00 0.00 69 1020.8
20260509081006 64 222 0.0 1.0 0.00 0.00 0.00 69 1020.6
20260509080905 64 222 0.0 1.0 0.00 0.00 0.00 69 1020.8
20260509080805 64 222 0.0 1.0 0.00 0.00 0.00 69 1020.7
20260509080720 64 222 0.0 1.0 0.00 0.00 0.00 69 1020.7
20260509080705 64 222 0.0 1.0 0.00 0.00 0.00 69 1020.5
20260509080606 64 222 0.0 1.0 0.00 0.00 0.00 69 1020.5
20260509080406 64 222 0.0 1.0 0.00 0.00 0.00 69 1020.6
20260509080318 64 222 0.0 1.0 0.00 0.00 0.00 69 1020.6
20260509080306 64 222 0.0 1.0 0.00 0.00 0.00 69 1020.5
20260509080206 64 222 0.0 2.0 0.00 0.00 0.00 69 1020.6
20260509080005 64 222 1.0 2.0 0.00 0.00 0.00 69 1020.5
20260509075921 64 222 1.0 2.0 0.00 0.00 0.00 68 1020.5
20260509075905 64 222 1.0 2.0 0.00 0.00 0.00 68 1020.6
20260509075806 64 223 1.0 2.0 0.00 0.00 0.00 68 1020.5
20260509075605 64 223 1.0 2.0 0.00 0.00 0.00 68 1020.5
20260509075504 64 224 1.0 2.0 0.00 0.00 0.00 68 1020.4
20260509075407 65 224 1.0 2.0 0.00 0.00 0.00 68 1020.6
20260509075306 65 224 1.0 2.0 0.00 0.00 0.00 68 1020.5
20260509075205 65 224 1.0 2.0 0.00 0.00 0.00 68 1020.3
20260509075106 65 225 1.0 2.0 0.00 0.00 0.00 68 1020.3
20260509075006 65 225 1.0 2.0 0.00 0.00 0.00 68 1020.5
20260509074905 65 225 1.0 2.0 0.00 0.00 0.00 68 1020.4
20260509074819 65 225 1.0 2.0 0.00 0.00 0.00 68 1020.4
20260509074805 65 225 1.0 2.0 0.00 0.00 0.00 68 1020.5
20260509074705 65 225 1.0 2.0 0.00 0.00 0.00 68 1020.4
20260509074506 65 225 1.0 2.0 0.00 0.00 0.00 67 1020.4
20260509074405 65 225 1.0 2.0 0.00 0.00 0.00 67 1020.1
20260509074306 65 225 0.0 1.0 0.00 0.00 0.00 67 1020.1
20260509074206 65 225 0.0 1.0 0.00 0.00 0.00 67 1020.4
20260509074104 66 224 0.0 3.0 0.00 0.00 0.00 67 1020.1
20260509074006 66 219 0.0 3.0 0.00 0.00 0.00 67 1020.3
20260509073906 66 213 0.0 3.0 0.00 0.00 0.00 67 1020.3
20260509073806 66 211 0.0 3.0 0.00 0.00 0.00 67 1020.0
20260509073720 66 209 0.0 3.0 0.00 0.00 0.00 67 1020.0
20260509073706 66 208 0.0 3.0 0.00 0.00 0.00 67 1020.1
20260509073605 66 208 0.0 3.0 0.00 0.00 0.00 67 1020.5
20260509073418 66 201 0.0 3.0 0.00 0.00 0.00 66 1020.3
20260509073405 66 200 0.0 3.0 0.00 0.00 0.00 66 1020.1
20260509073306 66 200 0.0 3.0 0.00 0.00 0.00 66 1020.0
20260509073219 66 200 0.0 3.0 0.00 0.00 0.00 66 1020.0
20260509073104 66 165 0.0 2.0 0.00 0.00 0.00 66 1020.1
20260509073020 66 150 0.0 2.0 0.00 0.00 0.00 66 1020.1
20260509072906 66 115 0.0 1.0 0.00 0.00 0.00 66 1020.0
20260509072821 66 112 0.0 1.0 0.00 0.00 0.00 66 1020.0
20260509072720 67 112 0.0 1.0 0.00 0.00 0.00 66 1019.9
20260509072706 67 110 0.0 1.0 0.00 0.00 0.00 66 1020.1
20260509072406 67 103 0.0 1.0 0.00 0.00 0.00 66 1020.1
20260509072307 67 103 0.0 1.0 0.00 0.00 0.00 66 1020.1
20260509072205 67 103 0.0 1.0 0.00 0.00 0.00 65 1020.0
20260509072105 67 94 0.0 1.0 0.00 0.00 0.00 65 1020.3
20260509072004 67 86 0.0 1.0 0.00 0.00 0.00 65 1019.9
20260509071921 67 86 0.0 1.0 0.00 0.00 0.00 65 1019.9
20260509071906 67 86 0.0 1.0 0.00 0.00 0.00 65 1020.0
20260509071805 67 86 0.0 1.0 0.00 0.00 0.00 65 1020.1
20260509071718 67 86 0.0 1.0 0.00 0.00 0.00 65 1020.1
20260509071605 67 0 0.0 0.0 0.00 0.00 0.00 65 1020.0
20260509071420 67 0 0.0 0.0 0.00 0.00 0.00 65 1020.0
20260509071406 67 0 0.0 0.0 0.00 0.00 0.00 65 1019.9
20260509071306 67 86 0.0 1.0 0.00 0.00 0.00 65 1019.9
20260509071106 67 86 0.0 1.0 0.00 0.00 0.00 64 1020.4
20260509071006 68 86 0.0 1.0 0.00 0.00 0.00 64 1020.0
20260509070906 68 99 0.0 1.0 0.00 0.00 0.00 64 1019.9
20260509070806 68 188 0.0 2.0 0.00 0.00 0.00 64 1020.0
20260509070706 68 188 0.0 2.0 0.00 0.00 0.00 64 1020.0
20260509070606 68 186 0.0 2.0 0.00 0.00 0.00 64 1019.9
20260509070506 68 170 0.0 3.0 0.00 0.00 0.00 64 1019.9
20260509070419 68 163 0.0 3.0 0.00 0.00 0.00 64 1019.9
20260509070406 68 163 0.0 3.0 0.00 0.00 0.00 64 1019.7
20260509070306 68 153 0.0 3.0 0.00 0.00 0.00 64 1019.7
20260509070119 68 156 0.0 3.0 0.00 0.00 0.00 64 1019.9
20260509070106 68 160 0.0 3.0 0.00 0.00 0.00 63 1019.7
20260509070020 68 151 0.0 3.0 0.00 0.00 0.00 63 1019.7
20260509070006 68 149 0.0 3.0 0.00 0.00 0.00 63 1019.8
20260509065921 68 154 1.0 3.0 0.00 0.00 0.00 63 1019.8
20260509065821 68 143 1.0 3.0 0.00 0.00 0.00 63 1019.6
20260509065519 69 121 1.0 3.0 0.00 0.00 0.00 63 1019.9
20260509065505 69 120 1.0 3.0 0.00 0.00 0.00 63 1019.9
20260509065419 69 119 1.0 3.0 0.00 0.00 0.00 63 1019.9
20260509065405 69 119 1.0 3.0 0.00 0.00 0.00 63 1019.7
20260509065106 69 125 1.0 4.0 0.00 0.00 0.00 62 1019.6
20260509065020 69 127 1.0 4.0 0.00 0.00 0.00 62 1019.6
20260509065005 69 128 1.0 4.0 0.00 0.00 0.00 62 1019.6
20260509064904 69 120 1.0 4.0 0.00 0.00 0.00 62 1019.8
20260509064706 69 117 1.0 4.0 0.00 0.00 0.00 62 1019.6
20260509064606 69 114 1.0 4.0 0.00 0.00 0.00 61 1019.8
20260509064506 69 118 1.0 4.0 0.00 0.00 0.00 61 1019.9
20260509064405 69 126 1.0 4.0 0.00 0.00 0.00 61 1019.7
20260509064306 70 127 1.0 4.0 0.00 0.00 0.00 61 1019.7
20260509064206 70 133 1.0 4.0 0.00 0.00 0.00 61 1019.7
20260509064106 70 142 1.0 3.0 0.00 0.00 0.00 61 1019.7
20260509064005 70 159 1.0 3.0 0.00 0.00 0.00 61 1019.7
20260509063903 70 181 1.0 3.0 0.00 0.00 0.00 61 1019.6
20260509063804 70 183 1.0 3.0 0.00 0.00 0.00 61 1019.7
20260509063705 70 175 1.0 3.0 0.00 0.00 0.00 61 1019.5
20260509063605 70 167 1.0 4.0 0.00 0.00 0.00 60 1019.6
20260509063504 70 162 1.0 4.0 0.00 0.00 0.00 60 1019.5
20260509063405 70 145 1.0 4.0 0.00 0.00 0.00 60 1019.6
20260509063318 70 138 1.0 4.0 0.00 0.00 0.00 60 1019.6
20260509063305 70 134 1.0 4.0 0.00 0.00 0.00 60 1019.7
20260509063205 70 126 1.0 4.0 0.00 0.00 0.00 60 1019.6
20260509063004 70 112 1.0 4.0 0.00 0.00 0.00 60 1019.4
20260509062904 70 107 1.0 4.0 0.00 0.00 0.00 60 1019.8
20260509062804 70 104 1.0 4.0 0.00 0.00 0.00 59 1019.5
20260509062720 70 103 1.0 4.0 0.00 0.00 0.00 59 1019.5
20260509062704 70 103 1.0 4.0 0.00 0.00 0.00 59 1019.6
20260509062605 70 105 1.0 4.0 0.00 0.00 0.00 59 1019.3
20260509062519 71 104 1.0 4.0 0.00 0.00 0.00 59 1019.3
20260509062404 71 104 1.0 4.0 0.00 0.00 0.00 58 1019.3
20260509062204 71 102 1.0 3.0 0.00 0.00 0.00 58 1019.6
20260509062105 71 99 1.0 3.0 0.00 0.00 0.00 58 1019.5
20260509062005 71 98 1.0 3.0 0.00 0.00 0.00 57 1019.4
20260509061906 71 96 1.0 3.0 0.00 0.00 0.00 57 1019.6
20260509061805 71 103 1.0 3.0 0.00 0.00 0.00 57 1019.7
20260509061719 71 105 1.0 3.0 0.00 0.00 0.00 57 1019.7
20260509061705 71 107 1.0 3.0 0.00 0.00 0.00 57 1019.6
20260509061618 71 116 1.0 3.0 0.00 0.00 0.00 56 1019.6
20260509061604 71 119 1.0 3.0 0.00 0.00 0.00 56 1019.4
20260509061304 71 120 1.0 3.0 0.00 0.00 0.00 56 1019.5
20260509061205 71 120 1.0 3.0 0.00 0.00 0.00 56 1019.4
20260509061105 71 114 1.0 3.0 0.00 0.00 0.00 56 1019.2
20260509061006 71 112 1.0 3.0 0.00 0.00 0.00 56 1019.6
20260509060906 71 112 1.0 3.0 0.00 0.00 0.00 56 1019.3
20260509060806 71 111 1.0 3.0 0.00 0.00 0.00 56 1019.5
20260509060706 71 108 1.0 3.0 0.00 0.00 0.00 56 1019.2
20260509060606 71 103 1.0 3.0 0.00 0.00 0.00 56 1019.3
20260509060506 71 101 1.0 3.0 0.00 0.00 0.00 56 1019.4
20260509060406 71 93 1.0 2.0 0.00 0.00 0.00 56 1019.4
20260509060304 71 88 1.0 2.0 0.00 0.00 0.00 56 1019.4
20260509060206 72 82 1.0 3.0 0.00 0.00 0.00 56 1019.3
20260509060105 72 58 1.0 3.0 0.00 0.00 0.00 56 1019.3
20260509060005 72 13 1.0 3.0 0.00 0.00 0.00 56 1019.1
20260509055905 72 322 1.0 3.0 0.00 0.00 0.00 56 1019.3
20260509055805 72 293 1.0 3.0 0.00 0.00 0.00 56 1019.3
20260509055705 72 272 1.0 3.0 0.00 0.00 0.00 56 1019.1
20260509055605 72 272 1.0 6.0 0.00 0.00 0.00 56 1019.1
20260509055506 72 269 1.0 6.0 0.00 0.00 0.00 56 1019.2
20260509055406 72 265 1.0 6.0 0.00 0.00 0.00 56 1019.1
20260509055307 72 261 1.0 6.0 0.00 0.00 0.00 56 1019.2
20260509055206 72 258 1.0 6.0 0.00 0.00 0.00 56 1019.2
20260509055121 72 254 1.0 6.0 0.00 0.00 0.00 56 1019.2
20260509055106 72 253 1.0 6.0 0.00 0.00 0.00 56 1019.2
20260509055006 72 249 1.0 6.0 0.00 0.00 0.00 56 1019.2
20260509054806 72 246 1.0 6.0 0.00 0.00 0.00 56 1019.3
20260509054706 72 246 1.0 6.0 0.00 0.00 0.00 56 1019.2
20260509054521 72 231 1.0 3.0 0.00 0.00 0.00 56 1019.2
20260509054504 72 226 1.0 3.0 0.00 0.00 0.00 56 1019.2
20260509054407 72 206 1.0 3.0 0.00 0.00 0.00 56 1019.3
20260509054206 72 164 1.0 3.0 0.00 0.00 0.00 56 1019.3
20260509054104 72 136 1.0 3.0 0.00 0.00 0.00 56 1019.1
20260509054005 72 128 1.0 3.0 0.00 0.00 0.00 56 1019.2
20260509053905 72 124 1.0 3.0 0.00 0.00 0.00 56 1019.3
20260509053821 72 115 1.0 3.0 0.00 0.00 0.00 55 1019.3
20260509053804 72 111 1.0 3.0 0.00 0.00 0.00 55 1019.1
20260509053706 72 107 1.0 3.0 0.00 0.00 0.00 55 1019.3
20260509053521 72 108 1.0 3.0 0.00 0.00 0.00 55 1019.2
20260509053505 72 108 1.0 3.0 0.00 0.00 0.00 55 1019.2
20260509053405 72 110 1.0 3.0 0.00 0.00 0.00 55 1019.4
20260509053205 72 116 1.0 3.0 0.00 0.00 0.00 55 1019.2
20260509053106 72 115 1.0 2.0 0.00 0.00 0.00 55 1019.2
20260509053004 72 115 1.0 2.0 0.00 0.00 0.00 55 1019.3
20260509052920 72 116 1.0 2.0 0.00 0.00 0.00 55 1019.3
20260509052904 72 116 1.0 2.0 0.00 0.00 0.00 55 1019.2
20260509052804 72 117 1.0 2.0 0.00 0.00 0.00 55 1019.2
20260509052605 72 118 1.0 2.0 0.00 0.00 0.00 56 1019.2
20260509052504 72 133 1.0 3.0 0.00 0.00 0.00 55 1019.2
20260509052405 72 149 1.0 6.0 0.00 0.00 0.00 55 1019.4
20260509052307 72 168 1.0 6.0 0.00 0.00 0.00 55 1019.2
20260509052206 72 200 1.0 7.0 0.00 0.00 0.00 55 1019.2
20260509052105 72 220 2.0 7.0 0.00 0.00 0.00 55 1019.3
20260509052006 72 227 2.0 7.0 0.00 0.00 0.00 55 1018.9
20260509051920 72 226 2.0 7.0 0.00 0.00 0.00 55 1018.9
20260509051907 72 226 2.0 7.0 0.00 0.00 0.00 55 1019.1
20260509051806 72 230 2.0 7.0 0.00 0.00 0.00 56 1019.2
20260509051605 72 237 2.0 7.0 0.00 0.00 0.00 56 1019.1
20260509051505 72 237 2.0 7.0 0.00 0.00 0.00 55 1019.3
20260509051405 72 239 2.0 7.0 0.00 0.00 0.00 56 1019.3
20260509051306 72 232 2.0 7.0 0.00 0.00 0.00 56 1019.2
20260509051205 72 213 2.0 6.0 0.00 0.00 0.00 56 1019.3
20260509051104 72 200 2.0 6.0 0.00 0.00 0.00 56 1019.1
20260509051005 72 186 2.0 4.0 0.00 0.00 0.00 56 1019.1
20260509050905 72 170 1.0 4.0 0.00 0.00 0.00 56 1018.9
20260509050805 72 144 1.0 4.0 0.00 0.00 0.00 56 1019.1
20260509050706 72 140 1.0 4.0 0.00 0.00 0.00 56 1019.0
20260509050620 72 149 1.0 4.0 0.00 0.00 0.00 56 1019.0
20260509050606 72 155 1.0 4.0 0.00 0.00 0.00 56 1019.1
20260509050506 72 180 2.0 4.0 0.00 0.00 0.00 56 1019.3
20260509050421 72 195 2.0 4.0 0.00 0.00 0.00 56 1019.3
20260509050306 72 220 2.0 4.0 0.00 0.00 0.00 56 1019.1
20260509050106 72 241 2.0 7.0 0.00 0.00 0.00 56 1019.2
20260509050006 72 251 2.0 7.0 0.00 0.00 0.00 56 1018.9
20260509045906 72 254 2.0 7.0 0.00 0.00 0.00 56 1019.1
20260509045818 72 254 2.0 7.0 0.00 0.00 0.00 56 1019.1
20260509045805 72 252 2.0 7.0 0.00 0.00 0.00 56 1019.0
20260509045704 72 251 3.0 7.0 0.00 0.00 0.00 56 1019.0
20260509045505 72 250 2.0 7.0 0.00 0.00 0.00 56 1018.9
20260509045405 72 250 2.0 7.0 0.00 0.00 0.00 56 1018.9
20260509045306 72 249 2.0 7.0 0.00 0.00 0.00 56 1019.1
20260509045205 72 247 2.0 7.0 0.00 0.00 0.00 56 1019.1
20260509045105 72 239 2.0 7.0 0.00 0.00 0.00 56 1019.0
20260509045005 72 229 2.0 7.0 0.00 0.00 0.00 55 1019.3
20260509044905 72 216 2.0 7.0 0.00 0.00 0.00 55 1019.2
20260509044820 72 215 2.0 7.0 0.00 0.00 0.00 55 1019.2
20260509044806 72 219 2.0 6.0 0.00 0.00 0.00 55 1018.9
20260509044706 72 219 1.0 6.0 0.00 0.00 0.00 56 1019.0
20260509044506 72 218 1.0 6.0 0.00 0.00 0.00 56 1019.0
20260509044421 72 213 1.0 6.0 0.00 0.00 0.00 56 1019.0
20260509044405 72 208 1.0 6.0 0.00 0.00 0.00 56 1018.9
20260509044305 72 202 1.0 4.0 0.00 0.00 0.00 56 1019.0
20260509044120 72 225 2.0 6.0 0.00 0.00 0.00 56 1019.3
20260509044105 72 225 2.0 6.0 0.00 0.00 0.00 56 1019.1
20260509044019 72 216 2.0 6.0 0.00 0.00 0.00 56 1019.1
20260509044006 72 217 2.0 6.0 0.00 0.00 0.00 56 1019.1
20260509043719 72 226 2.0 6.0 0.00 0.00 0.00 56 1019.2
20260509043705 72 226 2.0 6.0 0.00 0.00 0.00 56 1019.1
20260509043607 72 229 2.0 6.0 0.00 0.00 0.00 56 1019.2
20260509043520 72 232 2.0 6.0 0.00 0.00 0.00 56 1019.2
20260509043406 72 231 2.0 6.0 0.00 0.00 0.00 56 1019.0
20260509043206 72 231 2.0 6.0 0.00 0.00 0.00 56 1019.0
20260509043105 72 223 1.0 6.0 0.00 0.00 0.00 57 1019.1
20260509043006 72 231 1.0 6.0 0.00 0.00 0.00 56 1019.1
20260509042905 72 219 1.0 6.0 0.00 0.00 0.00 56 1019.3
20260509042805 72 181 2.0 6.0 0.00 0.00 0.00 56 1018.9
20260509042705 72 179 2.0 6.0 0.00 0.00 0.00 56 1019.0
20260509042607 72 138 2.0 6.0 0.00 0.00 0.00 56 1019.0
20260509042505 72 112 2.0 6.0 0.00 0.00 0.00 56 1019.1
20260509042406 72 102 2.0 6.0 0.00 0.00 0.00 57 1019.1
20260509042307 72 93 2.0 6.0 0.00 0.00 0.00 57 1018.8
20260509042205 72 91 2.0 6.0 0.00 0.00 0.00 56 1019.1
20260509042120 72 87 1.0 6.0 0.00 0.00 0.00 56 1019.1
20260509042104 72 86 1.0 6.0 0.00 0.00 0.00 56 1019.1
20260509042006 72 84 1.0 6.0 0.00 0.00 0.00 56 1019.1
20260509041806 72 110 1.0 4.0 0.00 0.00 0.00 57 1018.9
20260509041706 72 118 1.0 4.0 0.00 0.00 0.00 57 1019.3
20260509041606 72 159 1.0 4.0 0.00 0.00 0.00 57 1019.3
20260509041505 72 237 1.0 4.0 0.00 0.00 0.00 57 1019.1
20260509041404 72 250 1.0 4.0 0.00 0.00 0.00 57 1019.0
20260509041305 72 254 1.0 7.0 0.00 0.00 0.00 57 1019.2
20260509041206 72 256 2.0 7.0 0.00 0.00 0.00 57 1019.1
20260509041104 72 254 2.0 7.0 0.00 0.00 0.00 57 1018.9
20260509041004 72 251 2.0 7.0 0.00 0.00 0.00 57 1019.2
20260509040905 72 250 2.0 7.0 0.00 0.00 0.00 57 1019.0
20260509040805 72 254 2.0 7.0 0.00 0.00 0.00 57 1019.2
20260509040706 72 254 2.0 7.0 0.00 0.00 0.00 57 1019.1
20260509040605 72 253 2.0 7.0 0.00 0.00 0.00 57 1019.1
20260509040504 72 248 2.0 7.0 0.00 0.00 0.00 57 1019.2
20260509040405 72 252 2.0 7.0 0.00 0.00 0.00 56 1019.2
20260509040305 72 253 2.0 7.0 0.00 0.00 0.00 56 1019.2
20260509040206 72 242 1.0 7.0 0.00 0.00 0.00 57 1019.2
20260509040106 71 236 2.0 8.0 0.00 0.00 0.00 57 1019.2
20260509040006 71 236 2.0 8.0 0.00 0.00 0.00 57 1019.1
20260509035905 71 246 2.0 8.0 0.00 0.00 0.00 57 1019.0
20260509035806 71 245 2.0 8.0 0.00 0.00 0.00 57 1019.2
20260509035705 71 249 2.0 8.0 0.00 0.00 0.00 57 1018.9
20260509035605 71 249 2.0 8.0 0.00 0.00 0.00 57 1019.2
20260509035506 71 244 2.0 8.0 0.00 0.00 0.00 57 1019.0
20260509035404 71 241 2.0 8.0 0.00 0.00 0.00 57 1019.1
20260509035306 71 233 3.0 8.0 0.00 0.00 0.00 57 1019.2
20260509035205 71 229 3.0 9.0 0.00 0.00 0.00 57 1019.2
20260509035105 71 228 2.0 9.0 0.00 0.00 0.00 57 1019.2
20260509035005 71 233 2.0 9.0 0.00 0.00 0.00 57 1019.2
20260509034906 71 236 2.0 9.0 0.00 0.00 0.00 57 1019.3
20260509034806 71 234 3.0 9.0 0.00 0.00 0.00 57 1019.1
20260509034705 71 236 3.0 9.0 0.00 0.00 0.00 57 1019.0
20260509034604 71 237 3.0 9.0 0.00 0.00 0.00 57 1019.2
20260509034505 71 245 3.0 9.0 0.00 0.00 0.00 57 1018.9
20260509034420 71 249 2.0 9.0 0.00 0.00 0.00 57 1018.9
20260509034405 71 250 2.0 9.0 0.00 0.00 0.00 57 1019.1
20260509034319 71 266 2.0 9.0 0.00 0.00 0.00 57 1019.1
20260509034305 71 270 2.0 9.0 0.00 0.00 0.00 57 1019.2
20260509034006 71 296 2.0 8.0 0.00 0.00 0.00 57 1019.1
20260509033921 71 293 2.0 8.0 0.00 0.00 0.00 57 1019.1
20260509033906 71 292 2.0 8.0 0.00 0.00 0.00 57 1019.3
20260509033806 71 306 2.0 7.0 0.00 0.00 0.00 57 1019.2
20260509033619 71 305 2.0 7.0 0.00 0.00 0.00 58 1019.3
20260509033606 71 304 2.0 7.0 0.00 0.00 0.00 58 1019.3
20260509033505 71 297 3.0 7.0 0.00 0.00 0.00 58 1019.1
20260509033305 71 283 3.0 9.0 0.00 0.00 0.00 58 1019.1
20260509033206 71 272 3.0 9.0 0.00 0.00 0.00 58 1019.3
20260509033106 71 264 3.0 9.0 0.00 0.00 0.00 58 1019.1
20260509033005 71 265 3.0 9.0 0.00 0.00 0.00 58 1019.1
20260509032906 71 265 3.0 9.0 0.00 0.00 0.00 58 1019.3
20260509032706 71 267 3.0 9.0 0.00 0.00 0.00 58 1019.2
20260509032606 71 266 2.0 9.0 0.00 0.00 0.00 58 1019.2
20260509032506 71 259 2.0 9.0 0.00 0.00 0.00 58 1019.2
20260509032420 71 257 2.0 8.0 0.00 0.00 0.00 58 1019.2
20260509032405 71 255 2.0 8.0 0.00 0.00 0.00 58 1019.1
20260509032321 71 251 2.0 8.0 0.00 0.00 0.00 59 1019.1
20260509032306 71 253 2.0 8.0 0.00 0.00 0.00 59 1019.5
20260509032006 70 242 2.0 8.0 0.00 0.00 0.00 59 1019.2
20260509031905 70 236 2.0 8.0 0.00 0.00 0.00 59 1018.8
20260509031805 70 231 2.0 8.0 0.00 0.00 0.00 59 1019.1
20260509031720 70 227 2.0 8.0 0.00 0.00 0.00 59 1019.1
20260509031706 70 226 2.0 8.0 0.00 0.00 0.00 58 1019.0
20260509031604 70 230 2.0 8.0 0.00 0.00 0.00 59 1019.4
20260509031406 70 251 2.0 6.0 0.00 0.00 0.00 59 1019.2
20260509031304 70 248 2.0 7.0 0.00 0.00 0.00 59 1019.1
20260509031219 70 248 2.0 7.0 0.00 0.00 0.00 59 1019.1
20260509031206 70 248 2.0 7.0 0.00 0.00 0.00 59 1019.2
20260509031106 70 247 2.0 7.0 0.00 0.00 0.00 59 1019.2
20260509030906 70 269 2.0 7.0 0.00 0.00 0.00 59 1019.1
20260509030805 70 270 3.0 7.0 0.00 0.00 0.00 59 1019.1
20260509030706 70 269 3.0 7.0 0.00 0.00 0.00 60 1019.3
20260509030606 70 263 3.0 7.0 0.00 0.00 0.00 60 1019.3
20260509030506 70 253 3.0 7.0 0.00 0.00 0.00 60 1019.4
20260509030406 70 248 3.0 7.0 0.00 0.00 0.00 60 1019.2
20260509030306 70 241 3.0 7.0 0.00 0.00 0.00 60 1019.3
20260509030206 70 238 3.0 7.0 0.00 0.00 0.00 60 1019.4
20260509030120 70 238 2.0 7.0 0.00 0.00 0.00 60 1019.4
20260509030106 70 238 2.0 7.0 0.00 0.00 0.00 60 1019.3
20260509030020 70 231 2.0 7.0 0.00 0.00 0.00 60 1019.3
20260509030005 70 227 2.0 7.0 0.00 0.00 0.00 60 1019.3
20260509025706 70 212 2.0 6.0 0.00 0.00 0.00 60 1019.3
20260509025606 70 210 2.0 6.0 0.00 0.00 0.00 60 1019.3
20260509025506 70 207 2.0 6.0 0.00 0.00 0.00 60 1019.3
20260509025321 70 210 2.0 6.0 0.00 0.00 0.00 60 1019.1
20260509025306 70 212 2.0 6.0 0.00 0.00 0.00 60 1019.3
20260509025206 70 211 2.0 6.0 0.00 0.00 0.00 60 1019.4
20260509025005 70 208 2.0 6.0 0.00 0.00 0.00 60 1019.5
20260509024905 70 202 2.0 6.0 0.00 0.00 0.00 60 1019.2
20260509024805 69 199 2.0 6.0 0.00 0.00 0.00 60 1019.4
20260509024705 69 193 1.0 6.0 0.00 0.00 0.00 60 1019.3
20260509024605 69 196 2.0 6.0 0.00 0.00 0.00 60 1019.4
20260509024519 69 199 2.0 6.0 0.00 0.00 0.00 60 1019.4
20260509024506 69 209 2.0 6.0 0.00 0.00 0.00 60 1019.5
20260509024406 69 1 2.0 6.0 0.00 0.00 0.00 60 1019.3
20260509024206 69 337 2.0 11.0 0.00 0.00 0.00 61 1019.3
20260509024106 69 326 3.0 11.0 0.00 0.00 0.00 61 1019.3
20260509024005 69 319 3.0 11.0 0.00 0.00 0.00 61 1019.4
20260509023921 69 315 3.0 11.0 0.00 0.00 0.00 61 1019.4
20260509023906 69 314 3.0 11.0 0.00 0.00 0.00 61 1019.4
20260509023806 69 309 3.0 11.0 0.00 0.00 0.00 61 1019.4
20260509023606 69 289 3.0 11.0 0.00 0.00 0.00 61 1019.7
20260509023504 69 274 3.0 11.0 0.00 0.00 0.00 61 1019.4
20260509023405 69 263 2.0 11.0 0.00 0.00 0.00 61 1019.3
20260509023305 69 246 2.0 7.0 0.00 0.00 0.00 62 1019.5
20260509023206 69 236 2.0 6.0 0.00 0.00 0.00 61 1019.3
20260509023106 69 236 2.0 6.0 0.00 0.00 0.00 62 1019.7
20260509023005 69 237 2.0 6.0 0.00 0.00 0.00 61 1019.4
20260509022904 69 236 2.0 6.0 0.00 0.00 0.00 61 1019.5
20260509022805 69 230 2.0 6.0 0.00 0.00 0.00 62 1019.7
20260509022720 69 227 2.0 8.0 0.00 0.00 0.00 62 1019.7
20260509022705 69 227 2.0 9.0 0.00 0.00 0.00 62 1019.7
20260509022606 69 225 3.0 9.0 0.00 0.00 0.00 61 1019.6
20260509022406 69 222 3.0 9.0 0.00 0.00 0.00 62 1019.7
20260509022307 69 220 3.0 9.0 0.00 0.00 0.00 62 1019.8
20260509022206 69 224 4.0 9.0 0.00 0.00 0.00 62 1019.6
20260509022106 69 224 4.0 9.0 0.00 0.00 0.00 62 1019.8
20260509022006 69 224 4.0 9.0 0.00 0.00 0.00 62 1019.5
20260509021906 69 224 4.0 9.0 0.00 0.00 0.00 62 1020.0
20260509021806 68 225 4.0 9.0 0.00 0.00 0.00 62 1019.6
20260509021720 68 227 4.0 9.0 0.00 0.00 0.00 62 1019.6
20260509021704 68 228 4.0 9.0 0.00 0.00 0.00 62 1019.9
20260509021606 68 231 3.0 9.0 0.00 0.00 0.00 63 1020.1
20260509021406 68 228 3.0 9.0 0.00 0.00 0.00 63 1019.7
20260509021306 68 230 3.0 9.0 0.00 0.00 0.00 63 1020.0
20260509021205 68 229 3.0 7.0 0.00 0.00 0.00 63 1020.0
20260509021120 68 226 3.0 7.0 0.00 0.00 0.00 63 1020.0
20260509021105 68 227 3.0 7.0 0.00 0.00 0.00 63 1020.0
20260509021020 68 230 3.0 7.0 0.00 0.00 0.00 63 1020.0
20260509021006 68 231 3.0 7.0 0.00 0.00 0.00 63 1020.0
20260509020706 68 245 2.0 7.0 0.00 0.00 0.00 63 1020.1
20260509020606 67 244 2.0 7.0 0.00 0.00 0.00 63 1019.9
20260509020506 67 245 2.0 7.0 0.00 0.00 0.00 63 1019.9
20260509020406 67 257 2.0 6.0 0.00 0.00 0.00 63 1020.1
20260509020320 67 264 2.0 6.0 0.00 0.00 0.00 64 1020.1
20260509020306 67 268 2.0 6.0 0.00 0.00 0.00 64 1020.0
20260509020206 67 282 2.0 8.0 0.00 0.00 0.00 64 1019.9
20260509020119 67 286 2.0 8.0 0.00 0.00 0.00 64 1019.9
20260509020006 67 275 2.0 8.0 0.00 0.00 0.00 64 1019.9
20260509015806 67 276 2.0 8.0 0.00 0.00 0.00 64 1020.1
20260509015705 67 265 2.0 8.0 0.00 0.00 0.00 64 1019.9
20260509015605 67 256 3.0 8.0 0.00 0.00 0.00 64 1020.3
20260509015519 67 259 3.0 8.0 0.00 0.00 0.00 64 1020.3
20260509015505 67 258 3.0 8.0 0.00 0.00 0.00 64 1019.7
20260509015405 67 248 3.0 8.0 0.00 0.00 0.00 64 1020.0
20260509015206 67 241 3.0 8.0 0.00 0.00 0.00 64 1020.1
20260509015105 67 242 3.0 8.0 0.00 0.00 0.00 64 1020.1
20260509015006 67 239 4.0 8.0 0.00 0.00 0.00 64 1020.0
20260509014904 67 234 4.0 8.0 0.00 0.00 0.00 64 1020.3
20260509014805 67 232 4.0 8.0 0.00 0.00 0.00 64 1020.1
20260509014706 67 230 4.0 8.0 0.00 0.00 0.00 64 1020.3
20260509014606 67 232 4.0 8.0 0.00 0.00 0.00 64 1020.3
20260509014505 67 229 4.0 8.0 0.00 0.00 0.00 64 1020.3
20260509014405 67 231 4.0 8.0 0.00 0.00 0.00 65 1020.0
20260509014306 67 226 3.0 8.0 0.00 0.00 0.00 65 1020.3
20260509014206 67 229 3.0 8.0 0.00 0.00 0.00 65 1020.3
20260509014106 67 229 3.0 8.0 0.00 0.00 0.00 65 1020.1
20260509014020 67 230 3.0 8.0 0.00 0.00 0.00 65 1020.1
20260509014006 67 230 3.0 8.0 0.00 0.00 0.00 65 1020.4
20260509013920 67 239 3.0 9.0 0.00 0.00 0.00 65 1020.4
20260509013906 67 239 3.0 9.0 0.00 0.00 0.00 65 1020.0
20260509013606 67 231 3.0 9.0 0.00 0.00 0.00 65 1020.3
20260509013505 67 236 3.0 9.0 0.00 0.00 0.00 65 1020.3
20260509013406 66 242 3.0 9.0 0.00 0.00 0.00 65 1020.3
20260509013306 67 245 3.0 9.0 0.00 0.00 0.00 65 1020.4
20260509013206 67 241 3.0 9.0 0.00 0.00 0.00 65 1020.4
20260509013106 67 233 3.0 13.0 0.00 0.00 0.00 65 1020.6
20260509013006 67 231 3.0 13.0 0.00 0.00 0.00 65 1020.4
20260509012906 67 222 4.0 13.0 0.00 0.00 0.00 65 1020.4
20260509012806 67 225 3.0 13.0 0.00 0.00 0.00 65 1020.5
20260509012705 67 232 3.0 13.0 0.00 0.00 0.00 65 1020.4
20260509012605 67 231 3.0 13.0 0.00 0.00 0.00 66 1020.5
20260509012504 67 232 3.0 13.0 0.00 0.00 0.00 66 1020.5
20260509012406 67 222 3.0 13.0 0.00 0.00 0.00 66 1020.5
20260509012307 67 218 3.0 13.0 0.00 0.00 0.00 65 1020.7
20260509012219 67 213 3.0 13.0 0.00 0.00 0.00 66 1020.7
20260509012206 67 213 3.0 13.0 0.00 0.00 0.00 66 1020.5
20260509012106 67 221 3.0 9.0 0.00 0.00 0.00 66 1020.7
20260509011904 67 211 3.0 9.0 0.00 0.00 0.00 66 1020.7
20260509011821 67 215 3.0 9.0 0.00 0.00 0.00 67 1020.7
20260509011806 67 216 3.0 9.0 0.00 0.00 0.00 67 1020.6
20260509011706 67 213 3.0 8.0 0.00 0.00 0.00 66 1020.6
20260509011521 67 211 3.0 8.0 0.00 0.00 0.00 67 1020.5
20260509011506 67 209 3.0 8.0 0.00 0.00 0.00 67 1020.7
20260509011406 67 213 3.0 8.0 0.00 0.00 0.00 67 1020.7
20260509011205 67 208 2.0 8.0 0.00 0.00 0.00 67 1020.7
20260509011105 67 214 2.0 8.0 0.00 0.00 0.00 67 1020.8
20260509011004 67 218 3.0 8.0 0.00 0.00 0.00 67 1020.7
20260509010906 66 230 3.0 11.0 0.00 0.00 0.00 68 1020.7
20260509010804 66 230 3.0 11.0 0.00 0.00 0.00 68 1020.7
20260509010706 66 224 4.0 11.0 0.00 0.00 0.00 68 1020.6
20260509010620 66 226 4.0 11.0 0.00 0.00 0.00 68 1020.6
20260509010606 66 226 4.0 11.0 0.00 0.00 0.00 68 1020.6
20260509010505 66 222 4.0 11.0 0.00 0.00 0.00 68 1020.8
20260509010305 66 225 4.0 11.0 0.00 0.00 0.00 68 1020.8
20260509010206 66 227 5.0 11.0 0.00 0.00 0.00 68 1020.6
20260509010106 66 222 5.0 11.0 0.00 0.00 0.00 68 1020.8
20260509010020 66 221 5.0 11.0 0.00 0.00 0.00 68 1020.8
20260509010006 66 221 5.0 11.0 0.00 0.00 0.00 68 1020.7
20260509005906 66 214 4.0 11.0 0.00 0.00 0.00 68 1020.8
20260509005706 66 212 4.0 10.0 0.00 0.00 0.00 68 1020.9
20260509005605 66 212 5.0 10.0 0.00 0.00 0.00 68 1020.8
20260509005506 66 215 4.0 10.0 0.00 0.00 0.00 69 1020.6
20260509005406 65 214 4.0 10.0 0.00 0.00 0.00 68 1020.6
20260509005306 65 218 4.0 10.0 0.00 0.00 0.00 68 1020.8
20260509005205 65 217 4.0 9.0 0.00 0.00 0.00 69 1020.6
20260509005105 65 222 4.0 10.0 0.00 0.00 0.00 69 1020.8
20260509005005 65 229 4.0 10.0 0.00 0.00 0.00 69 1020.9
20260509004906 65 236 5.0 10.0 0.00 0.00 0.00 69 1020.7
20260509004806 65 239 5.0 10.0 0.00 0.00 0.00 69 1020.6
20260509004705 65 243 4.0 10.0 0.00 0.00 0.00 69 1020.5
20260509004620 65 243 4.0 10.0 0.00 0.00 0.00 69 1020.5
20260509004605 65 245 4.0 10.0 0.00 0.00 0.00 69 1020.6
20260509004505 65 243 4.0 10.0 0.00 0.00 0.00 69 1020.7
20260509004307 65 242 4.0 10.0 0.00 0.00 0.00 69 1020.6
20260509004206 65 242 4.0 10.0 0.00 0.00 0.00 69 1020.8
20260509004106 65 241 4.0 10.0 0.00 0.00 0.00 70 1020.8
20260509004006 65 241 4.0 10.0 0.00 0.00 0.00 70 1020.7
20260509003905 65 239 4.0 10.0 0.00 0.00 0.00 70 1020.8
20260509003805 64 239 4.0 10.0 0.00 0.00 0.00 70 1020.6
20260509003719 64 241 4.0 10.0 0.00 0.00 0.00 70 1020.6
20260509003706 64 241 4.0 10.0 0.00 0.00 0.00 70 1020.8
20260509003606 64 243 4.0 10.0 0.00 0.00 0.00 70 1020.7
20260509003405 64 243 4.0 10.0 0.00 0.00 0.00 70 1020.9
20260509003320 64 246 4.0 10.0 0.00 0.00 0.00 70 1020.9
20260509003306 64 247 4.0 10.0 0.00 0.00 0.00 70 1020.8
20260509003205 64 246 4.0 10.0 0.00 0.00 0.00 70 1021.0
20260509003006 64 249 3.0 10.0 0.00 0.00 0.00 71 1021.1
20260509002905 64 251 3.0 10.0 0.00 0.00 0.00 71 1020.8
20260509002821 64 247 3.0 10.0 0.00 0.00 0.00 71 1020.8
20260509002805 64 246 3.0 10.0 0.00 0.00 0.00 71 1021.0
20260509002705 64 243 3.0 10.0 0.00 0.00 0.00 71 1021.1
20260509002620 64 242 3.0 10.0 0.00 0.00 0.00 71 1021.1
20260509002521 64 247 3.0 10.0 0.00 0.00 0.00 71 1020.8
20260509002505 64 247 3.0 10.0 0.00 0.00 0.00 71 1020.9
20260509002320 64 245 3.0 10.0 0.00 0.00 0.00 71 1021.1
20260509002220 64 248 3.0 9.0 0.00 0.00 0.00 71 1021.0
20260509002206 64 249 3.0 9.0 0.00 0.00 0.00 71 1021.0
20260509001904 64 245 3.0 9.0 0.00 0.00 0.00 71 1020.8
20260509001806 63 246 3.0 9.0 0.00 0.00 0.00 71 1020.9
20260509001705 63 239 3.0 9.0 0.00 0.00 0.00 71 1020.9
20260509001606 63 237 3.0 9.0 0.00 0.00 0.00 72 1020.9
20260509001505 63 228 2.0 9.0 0.00 0.00 0.00 72 1020.8
20260509001404 63 219 3.0 9.0 0.00 0.00 0.00 72 1020.9
20260509001305 63 209 3.0 9.0 0.00 0.00 0.00 72 1021.0
20260509001206 63 204 3.0 9.0 0.00 0.00 0.00 72 1020.8
20260509001106 63 213 3.0 9.0 0.00 0.00 0.00 72 1021.0
20260509001019 63 214 3.0 9.0 0.00 0.00 0.00 72 1021.0
20260509001005 63 213 3.0 9.0 0.00 0.00 0.00 72 1021.1
20260509000905 62 204 3.0 9.0 0.00 0.00 0.00 72 1021.0
20260509000705 62 192 3.0 8.0 0.00 0.00 0.00 72 1021.1
20260509000620 62 188 3.0 8.0 0.00 0.00 0.00 72 1021.1
20260509000605 62 188 3.0 8.0 0.00 0.00 0.00 72 1021.0
20260509000504 62 187 2.0 8.0 0.00 0.00 0.00 72 1020.9
20260509000305 62 224 2.0 8.0 0.00 0.00 0.00 73 1021.1
20260509000206 62 228 2.0 8.0 0.00 0.00 0.00 73 1020.9
20260509000106 62 219 2.0 7.0 0.00 0.00 0.00 73 1021.0
20260509000006 62 230 2.0 7.0 0.00 0.00 0.00 73 1020.9
20260508235906 62 244 2.0 7.0 0.00 0.00 0.00 73 1020.9
20260508235805 62 274 2.0 6.0 0.00 0.00 0.00 73 1021.1
20260508235721 62 275 2.0 6.0 0.00 0.00 0.00 73 1021.1
20260508235706 62 274 2.0 6.0 0.00 0.00 0.00 73 1021.0
20260508235607 62 272 2.0 6.0 0.00 0.00 0.00 73 1021.1
20260508235406 62 255 2.0 6.0 0.00 0.00 0.00 73 1020.9
20260508235307 61 255 2.0 6.0 0.00 0.00 0.00 73 1020.8
20260508235205 61 264 2.0 6.0 0.00 0.00 0.00 73 1020.9
20260508235106 61 258 2.0 7.0 0.00 0.00 0.00 74 1021.0
20260508235006 61 257 2.0 7.0 0.00 0.00 0.00 74 1020.9
20260508234906 61 264 2.0 7.0 0.00 0.00 0.00 74 1021.0
20260508234818 61 264 2.0 7.0 0.00 0.00 0.00 74 1021.0
20260508234806 61 265 2.0 7.0 0.00 0.00 0.00 74 1021.0
20260508234719 61 265 2.0 7.0 0.00 0.00 0.00 74 1021.0
20260508234706 61 267 2.0 7.0 0.00 0.00 0.00 74 1021.0
20260508234419 61 279 2.0 7.0 0.00 0.00 0.00 74 1020.9
20260508234405 61 280 2.0 7.0 0.00 0.00 0.00 74 1020.9
20260508234306 61 279 2.0 7.0 0.00 0.00 0.00 74 1020.7
20260508234220 61 276 2.0 7.0 0.00 0.00 0.00 74 1020.7
20260508234105 61 281 2.0 6.0 0.00 0.00 0.00 74 1020.8
20260508233920 60 247 2.0 6.0 0.00 0.00 0.00 74 1021.2
20260508233905 60 238 2.0 10.0 0.00 0.00 0.00 74 1021.0
20260508233806 60 222 2.0 10.0 0.00 0.00 0.00 75 1020.8
20260508233619 60 206 2.0 10.0 0.00 0.00 0.00 74 1020.8
20260508233606 60 207 2.0 10.0 0.00 0.00 0.00 74 1021.0
20260508233505 60 193 2.0 10.0 0.00 0.00 0.00 75 1020.9
20260508233306 60 182 2.0 10.0 0.00 0.00 0.00 75 1020.9
20260508233206 60 185 2.0 10.0 0.00 0.00 0.00 75 1020.9
20260508233106 60 185 2.0 10.0 0.00 0.00 0.00 75 1020.8
20260508232905 60 179 1.0 10.0 0.00 0.00 0.00 76 1020.7
20260508232805 60 164 1.0 4.0 0.00 0.00 0.00 75 1020.9
20260508232705 60 163 1.0 4.0 0.00 0.00 0.00 75 1020.8
20260508232605 60 173 1.0 4.0 0.00 0.00 0.00 75 1020.9
20260508232505 59 183 1.0 4.0 0.00 0.00 0.00 76 1021.0
20260508232406 59 188 1.0 4.0 0.00 0.00 0.00 76 1021.1
20260508232307 59 193 1.0 4.0 0.00 0.00 0.00 76 1021.0
20260508232206 59 196 1.0 4.0 0.00 0.00 0.00 76 1021.0
20260508232105 59 210 1.0 4.0 0.00 0.00 0.00 76 1020.9
20260508232006 59 231 1.0 4.0 0.00 0.00 0.00 76 1021.1
20260508231920 59 235 2.0 6.0 0.00 0.00 0.00 76 1021.1
20260508231905 59 234 2.0 6.0 0.00 0.00 0.00 76 1021.0
20260508231806 59 243 2.0 6.0 0.00 0.00 0.00 76 1021.0
20260508231606 59 246 2.0 7.0 0.00 0.00 0.00 76 1021.0
20260508231506 59 239 2.0 7.0 0.00 0.00 0.00 76 1020.8
20260508231405 58 234 2.0 7.0 0.00 0.00 0.00 76 1021.0
20260508231306 58 230 2.0 7.0 0.00 0.00 0.00 76 1021.0
20260508231220 58 232 2.0 7.0 0.00 0.00 0.00 76 1021.0
20260508231205 58 235 2.0 7.0 0.00 0.00 0.00 76 1020.7
20260508231106 58 232 2.0 7.0 0.00 0.00 0.00 77 1020.9
20260508231019 58 230 2.0 7.0 0.00 0.00 0.00 77 1020.9
20260508230905 58 242 2.0 7.0 0.00 0.00 0.00 77 1020.8
20260508230820 58 244 2.0 7.0 0.00 0.00 0.00 77 1020.8
20260508230704 58 240 2.0 7.0 0.00 0.00 0.00 77 1020.7
20260508230520 58 251 2.0 7.0 0.00 0.00 0.00 77 1020.8
20260508230504 58 253 2.0 7.0 0.00 0.00 0.00 77 1020.8
20260508230405 57 256 2.0 7.0 0.00 0.00 0.00 77 1020.7
20260508230319 57 261 2.0 7.0 0.00 0.00 0.00 77 1020.7
20260508230205 57 265 2.0 7.0 0.00 0.00 0.00 77 1020.6
20260508230006 57 260 2.0 7.0 0.00 0.00 0.00 77 1020.9
20260508225906 57 254 2.0 7.0 0.00 0.00 0.00 77 1020.9
20260508225806 57 254 2.0 7.0 0.00 0.00 0.00 77 1020.9
20260508225705 57 256 2.0 7.0 0.00 0.00 0.00 77 1020.7
20260508225619 57 260 1.0 4.0 0.00 0.00 0.00 77 1020.7
20260508225606 57 259 1.0 4.0 0.00 0.00 0.00 77 1020.7
20260508225522 57 260 1.0 4.0 0.00 0.00 0.00 78 1020.7
20260508225505 57 260 1.0 4.0 0.00 0.00 0.00 78 1020.8
20260508225321 56 265 1.0 4.0 0.00 0.00 0.00 78 1020.7
20260508225207 56 253 1.0 4.0 0.00 0.00 0.00 78 1020.8
20260508225006 56 250 1.0 2.0 0.00 0.00 0.00 78 1020.8
20260508224906 56 250 0.0 2.0 0.00 0.00 0.00 78 1020.9
20260508224805 56 250 0.0 2.0 0.00 0.00 0.00 78 1020.5
20260508224706 56 250 0.0 2.0 0.00 0.00 0.00 78 1020.9
20260508224621 56 250 0.0 2.0 0.00 0.00 0.00 78 1020.9
20260508224606 56 250 0.0 2.0 0.00 0.00 0.00 78 1020.6
20260508224520 56 250 0.0 2.0 0.00 0.00 0.00 78 1020.6
20260508224505 56 250 0.0 2.0 0.00 0.00 0.00 78 1020.6
20260508224205 56 250 0.0 2.0 0.00 0.00 0.00 78 1020.7
20260508224106 55 250 0.0 3.0 0.00 0.00 0.00 79 1020.7
20260508224006 55 245 1.0 6.0 0.00 0.00 0.00 79 1020.5
20260508223906 55 243 1.0 6.0 0.00 0.00 0.00 79 1020.6
20260508223806 55 241 1.0 6.0 0.00 0.00 0.00 79 1020.6
20260508223706 55 239 1.0 6.0 0.00 0.00 0.00 79 1020.8
20260508223605 55 238 1.0 6.0 0.00 0.00 0.00 79 1020.7
20260508223504 55 237 1.0 6.0 0.00 0.00 0.00 79 1020.5
20260508223405 55 236 1.0 6.0 0.00 0.00 0.00 79 1020.7
20260508223321 55 236 1.0 6.0 0.00 0.00 0.00 79 1020.7
20260508223305 55 236 1.0 6.0 0.00 0.00 0.00 79 1020.5
20260508223206 55 234 1.0 6.0 0.00 0.00 0.00 79 1020.8
20260508223007 54 231 1.0 3.0 0.00 0.00 0.00 79 1020.7
20260508222906 54 230 1.0 3.0 0.00 0.00 0.00 79 1020.7
20260508222820 54 230 1.0 3.0 0.00 0.00 0.00 79 1020.7
20260508222806 54 230 1.0 3.0 0.00 0.00 0.00 79 1020.4
20260508222720 54 230 1.0 3.0 0.00 0.00 0.00 79 1020.4
20260508222704 54 230 1.0 3.0 0.00 0.00 0.00 79 1020.5
20260508222405 54 230 1.0 3.0 0.00 0.00 0.00 79 1020.6
20260508222306 54 230 1.0 3.0 0.00 0.00 0.00 79 1020.1
20260508222205 54 230 1.0 3.0 0.00 0.00 0.00 79 1020.3
20260508222106 54 230 1.0 3.0 0.00 0.00 0.00 79 1020.3
20260508222006 54 229 1.0 3.0 0.00 0.00 0.00 79 1020.1
20260508221906 53 229 1.0 3.0 0.00 0.00 0.00 79 1020.3
20260508221804 53 229 1.0 3.0 0.00 0.00 0.00 79 1020.3
20260508221706 53 229 0.0 2.0 0.00 0.00 0.00 79 1020.3
20260508221605 53 229 0.0 2.0 0.00 0.00 0.00 79 1020.0
20260508221505 53 229 0.0 2.0 0.00 0.00 0.00 79 1020.1
20260508221405 53 229 0.0 1.0 0.00 0.00 0.00 79 1020.1
20260508221306 53 229 0.0 2.0 0.00 0.00 0.00 79 1020.1
20260508221206 53 229 0.0 2.0 0.00 0.00 0.00 79 1020.0
20260508221105 53 229 0.0 2.0 0.00 0.00 0.00 79 1020.1
20260508221019 53 229 1.0 2.0 0.00 0.00 0.00 79 1020.1
20260508221006 53 229 1.0 2.0 0.00 0.00 0.00 79 1020.0
20260508220905 53 229 1.0 2.0 0.00 0.00 0.00 79 1020.0
20260508220706 53 229 1.0 2.0 0.00 0.00 0.00 79 1019.8
20260508220606 53 229 0.0 2.0 0.00 0.00 0.00 79 1020.0
20260508220506 53 229 0.0 2.0 0.00 0.00 0.00 79 1019.8
20260508220420 53 229 0.0 2.0 0.00 0.00 0.00 79 1019.8
20260508220406 53 229 0.0 2.0 0.00 0.00 0.00 79 1020.0
20260508220305 53 229 0.0 2.0 0.00 0.00 0.00 79 1020.1
20260508220105 52 229 0.0 2.0 0.00 0.00 0.00 79 1019.8
20260508220004 52 229 0.0 1.0 0.00 0.00 0.00 79 1019.7
20260508215906 52 229 0.0 1.0 0.00 0.00 0.00 79 1019.6
20260508215806 52 229 0.0 1.0 0.00 0.00 0.00 79 1020.0
20260508215706 52 229 0.0 1.0 0.00 0.00 0.00 79 1019.8
20260508215606 52 229 0.0 1.0 0.00 0.00 0.00 79 1019.7
20260508215504 52 229 0.0 1.0 0.00 0.00 0.00 79 1019.9
20260508215406 52 229 0.0 1.0 0.00 0.00 0.00 79 1020.0
20260508215307 52 229 0.0 1.0 0.00 0.00 0.00 79 1020.1
20260508215206 52 229 0.0 1.0 0.00 0.00 0.00 79 1020.0
20260508215104 52 229 0.0 2.0 0.00 0.00 0.00 79 1019.8
20260508215006 52 222 0.0 2.0 0.00 0.00 0.00 79 1019.9
20260508214904 52 221 0.0 2.0 0.00 0.00 0.00 79 1019.8
20260508214806 52 220 0.0 2.0 0.00 0.00 0.00 79 1020.0
20260508214706 52 213 0.0 2.0 0.00 0.00 0.00 79 1019.8
20260508214606 52 210 0.0 2.0 0.00 0.00 0.00 79 1019.8
20260508214506 52 209 0.0 2.0 0.00 0.00 0.00 79 1019.8
20260508214406 52 207 0.0 2.0 0.00 0.00 0.00 79 1019.9
20260508214319 52 203 0.0 2.0 0.00 0.00 0.00 79 1019.9
20260508214306 52 202 0.0 2.0 0.00 0.00 0.00 79 1019.8
20260508214206 51 198 0.0 2.0 0.00 0.00 0.00 79 1019.8
20260508214004 51 185 0.0 1.0 0.00 0.00 0.00 79 1019.6
20260508213906 51 185 0.0 1.0 0.00 0.00 0.00 79 1020.0
20260508213805 51 185 0.0 1.0 0.00 0.00 0.00 79 1019.9
20260508213720 51 185 0.0 1.0 0.00 0.00 0.00 79 1019.9
20260508213704 51 185 0.0 1.0 0.00 0.00 0.00 79 1019.7
20260508213619 51 185 0.0 1.0 0.00 0.00 0.00 79 1019.7
20260508213605 51 185 0.0 1.0 0.00 0.00 0.00 79 1019.6
20260508213420 51 185 0.0 1.0 0.00 0.00 0.00 79 1019.7
20260508213306 51 185 0.0 1.0 0.00 0.00 0.00 79 1019.8
20260508213105 51 185 0.0 1.0 0.00 0.00 0.00 79 1019.7
20260508213005 51 185 0.0 1.0 0.00 0.00 0.00 79 1019.9
20260508212921 51 185 0.0 1.0 0.00 0.00 0.00 79 1019.9
20260508212906 51 185 0.0 1.0 0.00 0.00 0.00 79 1019.8
20260508212806 51 185 0.0 1.0 0.00 0.00 0.00 79 1019.7
20260508212605 51 185 0.0 1.0 0.00 0.00 0.00 79 1019.6
20260508212519 51 185 0.0 1.0 0.00 0.00 0.00 79 1019.6
20260508212506 51 0 0.0 0.0 0.00 0.00 0.00 79 1019.8
20260508212206 51 0 0.0 0.0 0.00 0.00 0.00 79 1019.6
20260508212120 51 0 0.0 0.0 0.00 0.00 0.00 79 1019.6
20260508212106 51 0 0.0 0.0 0.00 0.00 0.00 79 1019.5
20260508212006 51 0 0.0 0.0 0.00 0.00 0.00 79 1019.6
20260508211806 51 197 0.0 2.0 0.00 0.00 0.00 79 1019.7
20260508211707 51 197 0.0 2.0 0.00 0.00 0.00 79 1019.6
20260508211606 51 197 0.0 2.0 0.00 0.00 0.00 79 1019.7
20260508211505 50 197 0.0 2.0 0.00 0.00 0.00 79 1019.5
20260508211406 50 197 0.0 2.0 0.00 0.00 0.00 79 1019.7
20260508211306 50 197 0.0 4.0 0.00 0.00 0.00 79 1019.5
20260508211205 50 194 1.0 4.0 0.00 0.00 0.00 79 1019.4
20260508211120 50 193 1.0 4.0 0.00 0.00 0.00 79 1019.4
20260508211105 50 193 1.0 4.0 0.00 0.00 0.00 79 1019.6
20260508211005 50 192 1.0 4.0 0.00 0.00 0.00 79 1019.5
20260508210919 50 192 1.0 4.0 0.00 0.00 0.00 79 1019.5
20260508210805 50 190 1.0 4.0 0.00 0.00 0.00 79 1019.4
20260508210605 50 189 1.0 4.0 0.00 0.00 0.00 79 1019.7
20260508210506 50 188 1.0 4.0 0.00 0.00 0.00 79 1019.5
20260508210406 50 187 1.0 4.0 0.00 0.00 0.00 79 1019.5
20260508210305 50 186 1.0 4.0 0.00 0.00 0.00 79 1019.5
20260508210206 50 186 1.0 3.0 0.00 0.00 0.00 79 1019.6
20260508210106 49 185 1.0 3.0 0.00 0.00 0.00 79 1019.8
20260508210006 49 185 1.0 3.0 0.00 0.00 0.00 79 1019.3
20260508205906 49 185 1.0 3.0 0.00 0.00 0.00 79 1019.7
20260508205805 49 185 1.0 3.0 0.00 0.00 0.00 79 1019.4
20260508205720 49 185 1.0 3.0 0.00 0.00 0.00 79 1019.4
20260508205705 49 185 1.0 2.0 0.00 0.00 0.00 79 1019.7
20260508205621 49 185 1.0 2.0 0.00 0.00 0.00 79 1019.7
20260508205605 49 185 1.0 2.0 0.00 0.00 0.00 79 1019.8
20260508205521 49 185 1.0 2.0 0.00 0.00 0.00 79 1019.8
20260508205206 49 185 1.0 1.0 0.00 0.00 0.00 79 1019.6
20260508205120 49 185 1.0 1.0 0.00 0.00 0.00 79 1019.6
20260508205105 49 185 1.0 1.0 0.00 0.00 0.00 79 1019.5
20260508205005 49 185 1.0 1.0 0.00 0.00 0.00 79 1019.5
20260508204805 49 185 1.0 1.0 0.00 0.00 0.00 79 1019.4
20260508204705 49 185 1.0 1.0 0.00 0.00 0.00 79 1019.1
20260508204606 49 185 1.0 1.0 0.00 0.00 0.00 79 1019.3
20260508204506 49 185 1.0 1.0 0.00 0.00 0.00 79 1019.3
20260508204405 49 185 1.0 1.0 0.00 0.00 0.00 78 1019.2
20260508204306 49 185 1.0 1.0 0.00 0.00 0.00 78 1019.3
20260508204221 49 185 1.0 1.0 0.00 0.00 0.00 78 1019.3
20260508204206 49 185 1.0 1.0 0.00 0.00 0.00 78 1019.1
20260508204106 49 185 1.0 1.0 0.00 0.00 0.00 78 1019.1
20260508203906 49 185 0.0 1.0 0.00 0.00 0.00 78 1019.3
20260508203806 49 185 0.0 1.0 0.00 0.00 0.00 78 1019.2
20260508203721 49 185 0.0 1.0 0.00 0.00 0.00 78 1019.2
20260508203705 49 185 0.0 1.0 0.00 0.00 0.00 78 1019.1
20260508203605 49 185 0.0 1.0 0.00 0.00 0.00 78 1019.2
20260508203405 49 185 0.0 1.0 0.00 0.00 0.00 78 1019.2
20260508203305 49 0 0.0 0.0 0.00 0.00 0.00 78 1019.1
20260508203205 49 0 0.0 0.0 0.00 0.00 0.00 78 1019.2
20260508203104 49 0 0.0 0.0 0.00 0.00 0.00 78 1019.0
20260508203006 49 0 0.0 0.0 0.00 0.00 0.00 78 1018.8
20260508202906 49 0 0.0 0.0 0.00 0.00 0.00 78 1019.1
20260508202806 49 0 0.0 0.0 0.00 0.00 0.00 78 1019.1
20260508202705 49 0 0.0 0.0 0.00 0.00 0.00 78 1019.1
20260508202606 49 0 0.0 0.0 0.00 0.00 0.00 78 1019.1
20260508202521 49 0 0.0 0.0 0.00 0.00 0.00 78 1019.1
20260508202506 49 0 0.0 0.0 0.00 0.00 0.00 78 1019.0
20260508202406 49 0 0.0 0.0 0.00 0.00 0.00 78 1018.8
20260508202320 49 0 0.0 0.0 0.00 0.00 0.00 78 1018.8
20260508202205 49 0 0.0 0.0 0.00 0.00 0.00 78 1019.1
20260508202119 49 0 0.0 0.0 0.00 0.00 0.00 78 1019.1
20260508202004 49 0 0.0 0.0 0.00 0.00 0.00 78 1019.0
20260508201805 49 0 0.0 0.0 0.00 0.00 0.00 78 1018.8
20260508201705 49 0 0.0 0.0 0.00 0.00 0.00 78 1019.0
20260508201606 49 0 0.0 0.0 0.00 0.00 0.00 78 1018.9
20260508201506 49 0 0.0 0.0 0.00 0.00 0.00 78 1018.8
20260508201405 49 0 0.0 0.0 0.00 0.00 0.00 78 1018.7
20260508201305 49 0 0.0 0.0 0.00 0.00 0.00 78 1018.8
20260508201205 49 0 0.0 0.0 0.00 0.00 0.00 78 1018.7
20260508201119 49 185 0.0 1.0 0.00 0.00 0.00 78 1018.7
20260508201105 49 185 0.0 1.0 0.00 0.00 0.00 78 1018.7
20260508201004 49 185 0.0 1.0 0.00 0.00 0.00 78 1018.8
20260508200918 49 185 0.0 1.0 0.00 0.00 0.00 78 1018.8
20260508200805 49 185 0.0 1.0 0.00 0.00 0.00 78 1018.7
20260508200605 49 185 0.0 1.0 0.00 0.00 0.00 78 1018.9
20260508200505 49 185 0.0 1.0 0.00 0.00 0.00 78 1018.6